Time,TemperatureF,DewpointF,PressureIn,WindDirection,WindDirectionDegrees,WindSpeedMPH,WindSpeedGustMPH,Humidity,HourlyPrecipIn,Conditions,Clouds,dailyrainin,SoftwareType,DateUTC
2013-03-03 00:00:00,24.7,20.8,29.41,West,270,1.1,4.0,85,0.00,,,0.00,WUHU216HW,2013-03-03 05:00:00,
2013-03-03 00:05:00,24.5,20.6,29.41,North,0,1.6,4.0,85,0.00,,,0.00,WUHU216HW,2013-03-03 05:05:00,
2013-03-03 00:10:00,24.5,20.6,29.41,NNW,338,0.2,2.5,85,0.00,,,0.00,WUHU216HW,2013-03-03 05:10:00,
2013-03-03 00:11:00,24.5,20.6,29.41,WSW,248,0.4,2.5,85,0.00,,,0.00,WUHU216HW,2013-03-03 05:11:00,
2013-03-03 00:15:00,24.5,20.6,29.41,NW,315,1.1,3.6,85,0.00,,,0.00,WUHU216HW,2013-03-03 05:15:00,
2013-03-03 00:16:00,24.3,20.4,29.41,NNW,338,0.4,3.6,85,0.00,,,0.00,WUHU216HW,2013-03-03 05:16:00,
2013-03-03 00:20:00,24.3,20.7,29.41,NW,315,1.3,3.6,86,0.00,,,0.00,WUHU216HW,2013-03-03 05:20:00,
2013-03-03 00:21:00,24.3,20.7,29.41,NNW,338,0.4,3.6,86,0.00,,,0.00,WUHU216HW,2013-03-03 05:21:00,
2013-03-03 00:25:00,24.3,20.7,29.41,NNW,338,1.1,2.5,86,0.00,,,0.00,WUHU216HW,2013-03-03 05:25:00,
2013-03-03 00:26:00,24.3,20.7,29.41,NNW,338,0.2,2.5,86,0.00,,,0.00,WUHU216HW,2013-03-03 05:26:00,
2013-03-03 00:30:00,24.3,20.4,29.41,NW,315,1.1,3.4,85,0.00,,,0.00,WUHU216HW,2013-03-03 05:30:00,
2013-03-03 00:31:00,24.3,20.4,29.41,North,0,2.5,3.4,85,0.00,,,0.00,WUHU216HW,2013-03-03 05:31:00,
2013-03-03 00:35:00,24.3,20.7,29.41,NE,45,1.6,3.4,86,0.00,,,0.00,WUHU216HW,2013-03-03 05:35:00,
2013-03-03 00:36:00,24.3,20.7,29.41,NNE,23,0.0,3.4,86,0.00,,,0.00,WUHU216HW,2013-03-03 05:36:00,
2013-03-03 00:40:00,24.3,20.7,29.41,NW,315,1.1,2.5,86,0.00,,,0.00,WUHU216HW,2013-03-03 05:40:00,
2013-03-03 00:41:00,24.3,20.7,29.41,NW,315,1.8,2.2,86,0.00,,,0.00,WUHU216HW,2013-03-03 05:41:00,
2013-03-03 00:42:00,24.1,20.5,29.41,NW,315,0.9,2.2,86,0.00,,,0.00,WUHU216HW,2013-03-03 05:42:00,
2013-03-03 00:45:00,24.1,20.5,29.41,NNE,23,2.5,3.1,86,0.00,,,0.00,WUHU216HW,2013-03-03 05:45:00,
2013-03-03 00:46:00,24.1,20.8,29.41,WNW,293,0.4,3.1,87,0.00,,,0.00,WUHU216HW,2013-03-03 05:46:00,
2013-03-03 00:47:00,24.1,20.5,29.41,NNW,338,0.4,3.1,86,0.00,,,0.00,WUHU216HW,2013-03-03 05:47:00,
2013-03-03 00:50:00,24.1,20.8,29.41,NW,315,1.1,3.1,87,0.00,,,0.00,WUHU216HW,2013-03-03 05:50:00,
2013-03-03 00:51:00,24.1,20.8,29.41,NW,315,1.1,3.1,87,0.00,,,0.00,WUHU216HW,2013-03-03 05:51:00,
2013-03-03 00:52:00,24.1,20.8,29.41,WNW,293,2.5,3.4,87,0.00,,,0.00,WUHU216HW,2013-03-03 05:52:00,
2013-03-03 00:55:00,24.3,21.0,29.41,WNW,293,0.7,3.6,87,0.00,,,0.00,WUHU216HW,2013-03-03 05:55:00,
2013-03-03 00:56:00,24.3,21.0,29.41,WSW,248,2.7,3.6,87,0.00,,,0.00,WUHU216HW,2013-03-03 05:56:00,
2013-03-03 00:57:00,24.3,21.0,29.41,West,270,1.8,3.6,87,0.00,,,0.00,WUHU216HW,2013-03-03 05:57:00,
2013-03-03 00:58:00,24.3,21.0,29.41,West,270,1.8,3.6,87,0.00,,,0.00,WUHU216HW,2013-03-03 05:58:00,
2013-03-03 01:01:00,24.3,21.0,29.41,WNW,293,3.1,3.6,87,0.00,,,0.00,WUHU216HW,2013-03-03 06:01:00,
2013-03-03 01:02:00,24.3,21.0,29.41,NW,315,2.0,3.6,87,0.00,,,0.00,WUHU216HW,2013-03-03 06:02:00,
2013-03-03 01:03:00,24.3,21.0,29.41,NNW,338,2.0,3.6,87,0.00,,,0.00,WUHU216HW,2013-03-03 06:03:00,
2013-03-03 01:06:00,24.3,20.7,29.41,NNW,338,0.4,3.4,86,0.00,,,0.00,WUHU216HW,2013-03-03 06:06:00,
2013-03-03 01:07:00,24.3,20.7,29.41,West,270,1.1,3.8,86,0.00,,,0.00,WUHU216HW,2013-03-03 06:07:00,
2013-03-03 01:08:00,24.3,20.7,29.41,NNE,23,7.8,7.8,86,0.00,,,0.00,WUHU216HW,2013-03-03 06:08:00,
2013-03-03 01:11:00,24.1,20.5,29.41,NNE,23,0.7,7.8,86,0.00,,,0.00,WUHU216HW,2013-03-03 06:11:00,
2013-03-03 01:12:00,24.1,20.5,29.41,West,270,0.4,7.8,86,0.00,,,0.00,WUHU216HW,2013-03-03 06:12:00,
2013-03-03 01:13:00,24.1,20.5,29.41,NNW,338,0.4,7.8,86,0.00,,,0.00,WUHU216HW,2013-03-03 06:13:00,
2013-03-03 01:16:00,24.1,20.5,29.41,NW,315,0.4,7.8,86,0.00,,,0.00,WUHU216HW,2013-03-03 06:16:00,
2013-03-03 01:17:00,23.9,20.3,29.41,North,0,1.6,7.8,86,0.00,,,0.00,WUHU216HW,2013-03-03 06:17:00,
2013-03-03 01:19:00,23.9,20.3,29.41,West,270,1.8,2.9,86,0.00,,,0.00,WUHU216HW,2013-03-03 06:19:00,
2013-03-03 01:21:00,23.9,20.6,29.41,NW,315,2.2,4.0,87,0.00,,,0.00,WUHU216HW,2013-03-03 06:21:00,
2013-03-03 01:22:00,23.9,20.6,29.41,NNW,338,0.4,4.0,87,0.00,,,0.00,WUHU216HW,2013-03-03 06:22:00,
2013-03-03 01:24:00,23.9,20.6,29.41,WSW,248,0.7,4.0,87,0.00,,,0.00,WUHU216HW,2013-03-03 06:24:00,
2013-03-03 01:27:00,23.9,20.6,29.41,NNW,338,1.1,6.3,87,0.00,,,0.00,WUHU216HW,2013-03-03 06:27:00,
2013-03-03 01:29:00,23.9,20.6,29.41,NW,315,0.4,6.3,87,0.00,,,0.00,WUHU216HW,2013-03-03 06:29:00,
2013-03-03 01:32:00,23.8,20.4,29.41,NW,315,0.9,6.3,87,0.00,,,0.00,WUHU216HW,2013-03-03 06:32:00,
2013-03-03 01:34:00,23.8,20.4,29.41,WNW,293,2.2,6.3,87,0.00,,,0.00,WUHU216HW,2013-03-03 06:34:00,
2013-03-03 01:37:00,23.8,20.4,29.41,West,270,2.5,6.3,87,0.00,,,0.00,WUHU216HW,2013-03-03 06:37:00,
2013-03-03 01:38:00,23.8,20.4,29.41,NW,315,0.7,6.3,87,0.00,,,0.00,WUHU216HW,2013-03-03 06:38:00,
2013-03-03 01:40:00,23.8,20.4,29.41,WNW,293,0.7,6.3,87,0.00,,,0.00,WUHU216HW,2013-03-03 06:40:00,
2013-03-03 01:42:00,23.8,20.4,29.41,West,270,0.4,6.3,87,0.00,,,0.00,WUHU216HW,2013-03-03 06:42:00,
2013-03-03 01:43:00,23.8,20.4,29.41,WSW,248,2.0,5.4,87,0.00,,,0.00,WUHU216HW,2013-03-03 06:43:00,
2013-03-03 01:45:00,23.8,20.4,29.41,NNW,338,2.7,5.4,87,0.00,,,0.00,WUHU216HW,2013-03-03 06:45:00,
2013-03-03 01:47:00,23.8,20.4,29.41,West,270,2.5,5.4,87,0.00,,,0.00,WUHU216HW,2013-03-03 06:47:00,
2013-03-03 01:48:00,23.6,20.3,29.41,NW,315,3.4,5.4,87,0.00,,,0.00,WUHU216HW,2013-03-03 06:48:00,
2013-03-03 01:50:00,23.6,20.3,29.41,NNW,338,0.7,4.5,87,0.00,,,0.00,WUHU216HW,2013-03-03 06:50:00,
2013-03-03 01:52:00,23.6,20.3,29.41,WNW,293,1.3,4.5,87,0.00,,,0.00,WUHU216HW,2013-03-03 06:52:00,
2013-03-03 01:53:00,23.6,20.5,29.41,NNW,338,0.4,4.5,88,0.00,,,0.00,WUHU216HW,2013-03-03 06:53:00,
2013-03-03 01:56:00,23.6,20.5,29.41,West,270,0.4,4.5,88,0.00,,,0.00,WUHU216HW,2013-03-03 06:56:00,
2013-03-03 01:57:00,23.6,20.5,29.41,WNW,293,0.7,4.5,88,0.00,,,0.00,WUHU216HW,2013-03-03 06:57:00,
2013-03-03 01:58:00,23.6,20.5,29.41,WSW,248,1.6,4.5,88,0.00,,,0.00,WUHU216HW,2013-03-03 06:58:00,
2013-03-03 02:01:00,23.6,20.5,29.41,NNE,23,2.0,3.4,88,0.00,,,0.00,WUHU216HW,2013-03-03 07:01:00,
2013-03-03 02:02:00,23.6,20.5,29.41,North,0,4.3,4.3,88,0.00,,,0.00,WUHU216HW,2013-03-03 07:02:00,
2013-03-03 02:03:00,23.6,20.5,29.41,SSE,158,0.4,4.3,88,0.00,,,0.00,WUHU216HW,2013-03-03 07:03:00,
2013-03-03 02:04:00,23.6,20.5,29.41,NW,315,0.9,4.3,88,0.00,,,0.00,WUHU216HW,2013-03-03 07:04:00,
2013-03-03 02:06:00,23.6,20.8,29.40,NW,315,2.2,4.3,89,0.00,,,0.00,WUHU216HW,2013-03-03 07:06:00,
2013-03-03 02:07:00,23.6,20.8,29.40,WNW,293,1.1,4.3,89,0.00,,,0.00,WUHU216HW,2013-03-03 07:07:00,
2013-03-03 02:08:00,23.6,20.8,29.40,NW,315,2.9,4.3,89,0.00,,,0.00,WUHU216HW,2013-03-03 07:08:00,
2013-03-03 02:11:00,23.8,20.7,29.40,West,270,1.1,4.3,88,0.00,,,0.00,WUHU216HW,2013-03-03 07:11:00,
2013-03-03 02:12:00,23.8,20.7,29.40,NNW,338,1.8,2.9,88,0.00,,,0.00,WUHU216HW,2013-03-03 07:12:00,
2013-03-03 02:13:00,23.8,20.7,29.40,North,0,0.9,2.9,88,0.00,,,0.00,WUHU216HW,2013-03-03 07:13:00,
2013-03-03 02:14:00,23.8,20.7,29.40,North,0,0.9,2.9,88,0.00,,,0.00,WUHU216HW,2013-03-03 07:14:00,
2013-03-03 02:16:00,23.8,20.7,29.40,WNW,293,2.7,2.9,88,0.00,,,0.00,WUHU216HW,2013-03-03 07:16:00,
2013-03-03 02:17:00,23.8,20.7,29.40,NW,315,1.1,2.9,88,0.00,,,0.00,WUHU216HW,2013-03-03 07:17:00,
2013-03-03 02:19:00,23.8,20.7,29.40,NW,315,2.7,6.3,88,0.00,,,0.00,WUHU216HW,2013-03-03 07:19:00,
2013-03-03 02:21:00,23.8,20.7,29.40,NW,315,2.0,6.3,88,0.00,,,0.00,WUHU216HW,2013-03-03 07:21:00,
2013-03-03 02:23:00,23.6,20.5,29.40,West,270,0.7,6.3,88,0.00,,,0.00,WUHU216HW,2013-03-03 07:23:00,
2013-03-03 02:24:00,23.6,20.5,29.40,NNW,338,1.6,6.3,88,0.00,,,0.00,WUHU216HW,2013-03-03 07:24:00,
2013-03-03 02:26:00,23.4,20.3,29.40,NW,315,4.5,6.3,88,0.00,,,0.00,WUHU216HW,2013-03-03 07:26:00,
2013-03-03 02:28:00,23.4,20.3,29.40,SW,225,3.4,6.3,88,0.00,,,0.00,WUHU216HW,2013-03-03 07:28:00,
2013-03-03 02:29:00,23.4,20.3,29.40,WNW,293,0.9,5.6,88,0.00,,,0.00,WUHU216HW,2013-03-03 07:29:00,
2013-03-03 02:30:00,23.4,20.3,29.40,North,0,3.4,5.6,88,0.00,,,0.00,WUHU216HW,2013-03-03 07:30:00,
2013-03-03 02:31:00,23.4,20.3,29.39,West,270,0.7,5.6,88,0.00,,,0.00,WUHU216HW,2013-03-03 07:31:00,
2013-03-03 02:33:00,23.2,20.2,29.39,NW,315,0.9,5.6,88,0.00,,,0.00,WUHU216HW,2013-03-03 07:33:00,
2013-03-03 02:34:00,23.2,20.2,29.40,West,270,4.0,5.6,88,0.00,,,0.00,WUHU216HW,2013-03-03 07:34:00,
2013-03-03 02:35:00,23.2,20.4,29.39,NW,315,3.1,7.6,89,0.00,,,0.00,WUHU216HW,2013-03-03 07:35:00,
2013-03-03 02:36:00,23.2,20.4,29.39,WNW,293,3.1,7.6,89,0.00,,,0.00,WUHU216HW,2013-03-03 07:36:00,
2013-03-03 02:38:00,23.2,20.2,29.39,West,270,3.4,7.6,88,0.00,,,0.00,WUHU216HW,2013-03-03 07:38:00,
2013-03-03 02:40:00,23.2,20.2,29.39,NNW,338,0.4,7.6,88,0.00,,,0.00,WUHU216HW,2013-03-03 07:40:00,
2013-03-03 02:41:00,23.2,20.2,29.39,NW,315,2.2,7.6,88,0.00,,,0.00,WUHU216HW,2013-03-03 07:41:00,
2013-03-03 02:43:00,23.2,20.2,29.39,North,0,0.4,7.6,88,0.00,,,0.00,WUHU216HW,2013-03-03 07:43:00,
2013-03-03 02:45:00,23.2,20.2,29.39,WNW,293,1.1,4.9,88,0.00,,,0.00,WUHU216HW,2013-03-03 07:45:00,
2013-03-03 02:47:00,23.2,20.2,29.39,West,270,3.1,4.7,88,0.00,,,0.00,WUHU216HW,2013-03-03 07:47:00,
2013-03-03 02:48:00,23.2,20.2,29.39,WNW,293,1.8,4.7,88,0.00,,,0.00,WUHU216HW,2013-03-03 07:48:00,
2013-03-03 02:50:00,23.2,20.2,29.39,NW,315,0.7,4.7,88,0.00,,,0.00,WUHU216HW,2013-03-03 07:50:00,
2013-03-03 02:51:00,23.0,20.0,29.39,West,270,1.1,4.7,88,0.00,,,0.00,WUHU216HW,2013-03-03 07:51:00,
2013-03-03 02:52:00,23.2,20.2,29.39,NW,315,3.4,4.7,88,0.00,,,0.00,WUHU216HW,2013-03-03 07:52:00,
2013-03-03 02:53:00,23.0,20.0,29.39,NW,315,2.0,4.7,88,0.00,,,0.00,WUHU216HW,2013-03-03 07:53:00,
2013-03-03 02:55:00,23.2,20.2,29.39,NNW,338,0.9,4.7,88,0.00,,,0.00,WUHU216HW,2013-03-03 07:55:00,
2013-03-03 02:56:00,23.0,20.0,29.39,NW,315,2.0,4.7,88,0.00,,,0.00,WUHU216HW,2013-03-03 07:56:00,
2013-03-03 02:57:00,23.2,20.2,29.39,NNW,338,1.1,4.7,88,0.00,,,0.00,WUHU216HW,2013-03-03 07:57:00,
2013-03-03 02:58:00,23.2,20.2,29.39,NW,315,1.1,4.7,88,0.00,,,0.00,WUHU216HW,2013-03-03 07:58:00,
2013-03-03 03:00:00,23.0,20.0,29.39,NNE,23,1.8,4.7,88,0.00,,,0.00,WUHU216HW,2013-03-03 08:00:00,
2013-03-03 03:01:00,23.0,20.0,29.39,NW,315,0.4,4.7,88,0.00,,,0.00,WUHU216HW,2013-03-03 08:01:00,
2013-03-03 03:03:00,23.0,20.0,29.39,NW,315,0.7,4.7,88,0.00,,,0.00,WUHU216HW,2013-03-03 08:03:00,
2013-03-03 03:04:00,23.0,20.0,29.39,NW,315,0.4,4.7,88,0.00,,,0.00,WUHU216HW,2013-03-03 08:04:00,
2013-03-03 03:05:00,23.0,20.0,29.39,West,270,1.8,4.3,88,0.00,,,0.00,WUHU216HW,2013-03-03 08:05:00,
2013-03-03 03:06:00,23.0,20.0,29.39,NNW,338,2.9,4.3,88,0.00,,,0.00,WUHU216HW,2013-03-03 08:06:00,
2013-03-03 03:08:00,23.0,20.0,29.39,North,0,0.4,4.3,88,0.00,,,0.00,WUHU216HW,2013-03-03 08:08:00,
2013-03-03 03:09:00,23.0,20.0,29.39,WSW,248,0.9,4.3,88,0.00,,,0.00,WUHU216HW,2013-03-03 08:09:00,
2013-03-03 03:10:00,23.0,20.0,29.39,NW,315,1.1,3.8,88,0.00,,,0.00,WUHU216HW,2013-03-03 08:10:00,
2013-03-03 03:11:00,23.0,20.0,29.39,NW,315,1.1,3.8,88,0.00,,,0.00,WUHU216HW,2013-03-03 08:11:00,
2013-03-03 03:13:00,23.0,20.0,29.39,WNW,293,2.5,3.8,88,0.00,,,0.00,WUHU216HW,2013-03-03 08:13:00,
2013-03-03 03:14:00,23.0,20.0,29.39,WSW,248,2.2,3.8,88,0.00,,,0.00,WUHU216HW,2013-03-03 08:14:00,
2013-03-03 03:15:00,23.0,20.0,29.39,NNW,338,1.8,5.6,88,0.00,,,0.00,WUHU216HW,2013-03-03 08:15:00,
2013-03-03 03:17:00,23.0,20.0,29.39,NW,315,2.5,5.6,88,0.00,,,0.00,WUHU216HW,2013-03-03 08:17:00,
2013-03-03 03:18:00,22.9,19.8,29.39,West,270,1.1,5.6,88,0.00,,,0.00,WUHU216HW,2013-03-03 08:18:00,
2013-03-03 03:19:00,22.9,19.8,29.39,WNW,293,2.2,5.6,88,0.00,,,0.00,WUHU216HW,2013-03-03 08:19:00,
2013-03-03 03:20:00,22.9,19.8,29.39,NNW,338,1.1,5.6,88,0.00,,,0.00,WUHU216HW,2013-03-03 08:20:00,
2013-03-03 03:22:00,23.0,20.3,29.39,NNW,338,1.3,5.6,89,0.00,,,0.00,WUHU216HW,2013-03-03 08:22:00,
2013-03-03 03:23:00,23.0,20.3,29.39,NNW,338,1.3,5.6,89,0.00,,,0.00,WUHU216HW,2013-03-03 08:23:00,
2013-03-03 03:24:00,23.0,20.3,29.39,West,270,1.3,5.6,89,0.00,,,0.00,WUHU216HW,2013-03-03 08:24:00,
2013-03-03 03:25:00,23.0,20.0,29.39,WNW,293,0.7,3.6,88,0.00,,,0.00,WUHU216HW,2013-03-03 08:25:00,
2013-03-03 03:27:00,23.0,20.0,29.39,North,0,3.1,3.6,88,0.00,,,0.00,WUHU216HW,2013-03-03 08:27:00,
2013-03-03 03:28:00,23.0,20.0,29.39,North,0,1.8,3.6,88,0.00,,,0.00,WUHU216HW,2013-03-03 08:28:00,
2013-03-03 03:29:00,23.0,20.0,29.39,North,0,1.8,3.6,88,0.00,,,0.00,WUHU216HW,2013-03-03 08:29:00,
2013-03-03 03:30:00,23.0,20.0,29.39,NW,315,0.7,3.6,88,0.00,,,0.00,WUHU216HW,2013-03-03 08:30:00,
2013-03-03 03:33:00,23.2,20.2,29.39,North,0,1.1,3.6,88,0.00,,,0.00,WUHU216HW,2013-03-03 08:33:00,
2013-03-03 03:34:00,23.2,20.2,29.39,NW,315,1.1,3.4,88,0.00,,,0.00,WUHU216HW,2013-03-03 08:34:00,
2013-03-03 03:36:00,23.2,20.2,29.39,NW,315,1.1,3.4,88,0.00,,,0.00,WUHU216HW,2013-03-03 08:36:00,
2013-03-03 03:38:00,23.0,20.0,29.39,North,0,2.5,5.1,88,0.00,,,0.00,WUHU216HW,2013-03-03 08:38:00,
2013-03-03 03:39:00,23.0,20.0,29.39,NNE,23,2.5,5.1,88,0.00,,,0.00,WUHU216HW,2013-03-03 08:39:00,
2013-03-03 03:41:00,22.9,19.5,29.39,WNW,293,5.1,5.1,87,0.00,,,0.00,WUHU216HW,2013-03-03 08:41:00,
2013-03-03 03:43:00,22.9,19.5,29.39,NW,315,1.1,5.1,87,0.00,,,0.00,WUHU216HW,2013-03-03 08:43:00,
2013-03-03 03:44:00,22.9,19.5,29.39,West,270,2.0,5.1,87,0.00,,,0.00,WUHU216HW,2013-03-03 08:44:00,
2013-03-03 03:46:00,22.7,19.6,29.39,NW,315,1.8,5.4,88,0.00,,,0.00,WUHU216HW,2013-03-03 08:46:00,
2013-03-03 03:48:00,22.7,19.6,29.39,NW,315,0.7,5.4,88,0.00,,,0.00,WUHU216HW,2013-03-03 08:48:00,
2013-03-03 03:49:00,22.7,19.6,29.39,NW,315,2.7,5.4,88,0.00,,,0.00,WUHU216HW,2013-03-03 08:49:00,
2013-03-03 03:51:00,22.7,19.6,29.39,North,0,0.7,5.4,88,0.00,,,0.00,WUHU216HW,2013-03-03 08:51:00,
2013-03-03 03:53:00,22.7,19.6,29.39,WNW,293,2.2,5.4,88,0.00,,,0.00,WUHU216HW,2013-03-03 08:53:00,
2013-03-03 03:54:00,22.7,19.4,29.39,NW,315,1.6,5.4,87,0.00,,,0.00,WUHU216HW,2013-03-03 08:54:00,
2013-03-03 03:55:00,22.7,19.4,29.39,WNW,293,2.9,4.0,87,0.00,,,0.00,WUHU216HW,2013-03-03 08:55:00,
2013-03-03 03:56:00,22.7,19.4,29.39,West,270,1.1,4.0,87,0.00,,,0.00,WUHU216HW,2013-03-03 08:56:00,
2013-03-03 03:58:00,22.7,19.4,29.39,NW,315,2.0,4.7,87,0.00,,,0.00,WUHU216HW,2013-03-03 08:58:00,
2013-03-03 03:59:00,22.7,19.6,29.39,WSW,248,2.5,4.7,88,0.00,,,0.00,WUHU216HW,2013-03-03 08:59:00,
2013-03-03 04:00:00,22.7,19.4,29.39,WNW,293,3.6,4.7,87,0.00,,,0.00,WUHU216HW,2013-03-03 09:00:00,
2013-03-03 04:01:00,22.7,19.4,29.39,WSW,248,5.6,5.6,87,0.00,,,0.00,WUHU216HW,2013-03-03 09:01:00,
2013-03-03 04:03:00,22.7,19.4,29.39,WNW,293,3.4,5.6,87,0.00,,,0.00,WUHU216HW,2013-03-03 09:03:00,
2013-03-03 04:04:00,22.7,19.4,29.39,SW,225,1.8,5.6,87,0.00,,,0.00,WUHU216HW,2013-03-03 09:04:00,
2013-03-03 04:05:00,22.7,19.4,29.39,NW,315,0.7,5.6,87,0.00,,,0.00,WUHU216HW,2013-03-03 09:05:00,
2013-03-03 04:06:00,22.7,19.6,29.39,SW,225,0.9,5.6,88,0.00,,,0.00,WUHU216HW,2013-03-03 09:06:00,
2013-03-03 04:09:00,22.5,19.4,29.39,NW,315,0.4,5.6,88,0.00,,,0.00,WUHU216HW,2013-03-03 09:09:00,
2013-03-03 04:10:00,22.7,19.6,29.39,NNW,338,0.4,5.6,88,0.00,,,0.00,WUHU216HW,2013-03-03 09:10:00,
2013-03-03 04:11:00,22.5,19.4,29.39,NW,315,0.2,4.9,88,0.00,,,0.00,WUHU216HW,2013-03-03 09:11:00,
2013-03-03 04:14:00,22.7,19.6,29.39,West,270,0.7,4.3,88,0.00,,,0.00,WUHU216HW,2013-03-03 09:14:00,
2013-03-03 04:15:00,22.5,19.4,29.39,NW,315,1.8,4.3,88,0.00,,,0.00,WUHU216HW,2013-03-03 09:15:00,
2013-03-03 04:16:00,22.5,19.4,29.39,West,270,0.9,4.3,88,0.00,,,0.00,WUHU216HW,2013-03-03 09:16:00,
2013-03-03 04:19:00,22.5,19.4,29.39,North,0,1.1,3.6,88,0.00,,,0.00,WUHU216HW,2013-03-03 09:19:00,
2013-03-03 04:20:00,22.5,19.4,29.39,NW,315,1.1,3.6,88,0.00,,,0.00,WUHU216HW,2013-03-03 09:20:00,
2013-03-03 04:22:00,22.5,19.2,29.39,WSW,248,0.9,3.6,87,0.00,,,0.00,WUHU216HW,2013-03-03 09:22:00,
2013-03-03 04:24:00,22.5,19.2,29.39,North,0,1.3,4.9,87,0.00,,,0.00,WUHU216HW,2013-03-03 09:24:00,
2013-03-03 04:25:00,22.5,19.2,29.39,NNW,338,1.1,4.9,87,0.00,,,0.00,WUHU216HW,2013-03-03 09:25:00,
2013-03-03 04:27:00,22.5,19.2,29.39,West,270,0.4,4.9,87,0.00,,,0.00,WUHU216HW,2013-03-03 09:27:00,
2013-03-03 04:30:00,22.5,19.2,29.39,West,270,2.5,4.9,87,0.00,,,0.00,WUHU216HW,2013-03-03 09:30:00,
2013-03-03 04:31:00,22.5,19.2,29.39,NNW,338,0.7,4.9,87,0.00,,,0.00,WUHU216HW,2013-03-03 09:31:00,
2013-03-03 04:32:00,22.3,19.0,29.39,WNW,293,5.4,5.4,87,0.00,,,0.00,WUHU216HW,2013-03-03 09:32:00,
2013-03-03 04:35:00,22.3,19.0,29.39,NNW,338,0.9,5.4,87,0.00,,,0.00,WUHU216HW,2013-03-03 09:35:00,
2013-03-03 04:36:00,22.3,19.0,29.39,WNW,293,0.9,5.4,87,0.00,,,0.00,WUHU216HW,2013-03-03 09:36:00,
2013-03-03 04:37:00,22.3,19.0,29.39,WNW,293,0.9,5.4,87,0.00,,,0.00,WUHU216HW,2013-03-03 09:37:00,
2013-03-03 04:40:00,22.5,19.2,29.39,NNW,338,1.1,5.4,87,0.00,,,0.00,WUHU216HW,2013-03-03 09:40:00,
2013-03-03 04:41:00,22.5,19.2,29.39,West,270,1.8,5.4,87,0.00,,,0.00,WUHU216HW,2013-03-03 09:41:00,
2013-03-03 04:42:00,22.5,19.2,29.39,West,270,3.6,5.4,87,0.00,,,0.00,WUHU216HW,2013-03-03 09:42:00,
2013-03-03 04:45:00,22.7,19.4,29.39,NW,315,1.6,3.6,87,0.00,,,0.00,WUHU216HW,2013-03-03 09:45:00,
2013-03-03 04:46:00,22.7,19.4,29.39,NW,315,0.7,3.6,87,0.00,,,0.00,WUHU216HW,2013-03-03 09:46:00,
2013-03-03 04:47:00,22.7,19.4,29.39,West,270,0.4,3.6,87,0.00,,,0.00,WUHU216HW,2013-03-03 09:47:00,
2013-03-03 04:50:00,22.7,19.4,29.39,NNW,338,0.4,3.6,87,0.00,,,0.00,WUHU216HW,2013-03-03 09:50:00,
2013-03-03 04:51:00,22.7,19.4,29.39,NNW,338,0.0,3.6,87,0.00,,,0.00,WUHU216HW,2013-03-03 09:51:00,
2013-03-03 04:52:00,22.7,19.4,29.39,North,0,0.4,3.6,87,0.00,,,0.00,WUHU216HW,2013-03-03 09:52:00,
2013-03-03 04:55:00,22.7,19.4,29.39,NNW,338,1.8,3.4,87,0.00,,,0.00,WUHU216HW,2013-03-03 09:55:00,
2013-03-03 04:56:00,22.5,18.9,29.39,NW,315,0.4,3.4,86,0.00,,,0.00,WUHU216HW,2013-03-03 09:56:00,
2013-03-03 04:57:00,22.5,18.9,29.39,NNW,338,0.0,3.4,86,0.00,,,0.00,WUHU216HW,2013-03-03 09:57:00,
2013-03-03 05:00:00,22.3,18.7,29.39,NW,315,3.6,6.3,86,0.00,,,0.00,WUHU216HW,2013-03-03 10:00:00,
2013-03-03 05:01:00,22.3,18.7,29.39,NW,315,1.1,6.3,86,0.00,,,0.00,WUHU216HW,2013-03-03 10:01:00,
2013-03-03 05:02:00,22.3,18.7,29.39,West,270,1.1,6.3,86,0.00,,,0.00,WUHU216HW,2013-03-03 10:02:00,
2013-03-03 05:05:00,22.3,18.7,29.39,WNW,293,0.9,6.3,86,0.00,,,0.00,WUHU216HW,2013-03-03 10:05:00,
2013-03-03 05:06:00,22.3,18.7,29.39,NW,315,1.1,6.3,86,0.00,,,0.00,WUHU216HW,2013-03-03 10:06:00,
2013-03-03 05:07:00,22.3,18.7,29.39,WSW,248,0.9,6.3,86,0.00,,,0.00,WUHU216HW,2013-03-03 10:07:00,
2013-03-03 05:10:00,22.1,18.5,29.39,NW,315,1.8,2.9,86,0.00,,,0.00,WUHU216HW,2013-03-03 10:10:00,
2013-03-03 05:12:00,22.1,18.5,29.39,West,270,0.9,2.7,86,0.00,,,0.00,WUHU216HW,2013-03-03 10:12:00,
2013-03-03 05:15:00,22.1,18.3,29.39,NW,315,1.1,5.6,85,0.00,,,0.00,WUHU216HW,2013-03-03 10:15:00,
2013-03-03 05:17:00,22.1,18.3,29.39,NNW,338,0.4,5.6,85,0.00,,,0.00,WUHU216HW,2013-03-03 10:17:00,
2013-03-03 05:20:00,22.1,18.3,29.39,NW,315,0.2,5.6,85,0.00,,,0.00,WUHU216HW,2013-03-03 10:20:00,
2013-03-03 05:22:00,22.1,18.3,29.39,WNW,293,0.4,5.6,85,0.00,,,0.00,WUHU216HW,2013-03-03 10:22:00,
2013-03-03 05:25:00,22.1,18.3,29.39,West,270,1.3,5.4,85,0.00,,,0.00,WUHU216HW,2013-03-03 10:25:00,
2013-03-03 05:27:00,22.1,18.3,29.39,NW,315,1.8,4.5,85,0.00,,,0.00,WUHU216HW,2013-03-03 10:27:00,
2013-03-03 05:31:00,22.1,18.3,29.39,North,0,0.4,3.4,85,0.00,,,0.00,WUHU216HW,2013-03-03 10:31:00,
2013-03-03 05:32:00,22.1,18.5,29.39,NW,315,0.7,3.4,86,0.00,,,0.00,WUHU216HW,2013-03-03 10:32:00,
2013-03-03 05:36:00,22.1,18.3,29.39,WNW,293,2.9,3.4,85,0.00,,,0.00,WUHU216HW,2013-03-03 10:36:00,
2013-03-03 05:37:00,22.0,18.1,29.39,WNW,293,0.7,2.9,85,0.00,,,0.00,WUHU216HW,2013-03-03 10:37:00,
2013-03-03 05:38:00,22.1,18.3,29.39,NW,315,0.4,2.9,85,0.00,,,0.00,WUHU216HW,2013-03-03 10:38:00,
2013-03-03 05:41:00,22.0,18.1,29.39,NNW,338,1.6,2.9,85,0.00,,,0.00,WUHU216HW,2013-03-03 10:41:00,
2013-03-03 05:42:00,22.0,18.1,29.39,WNW,293,1.8,3.1,85,0.00,,,0.00,WUHU216HW,2013-03-03 10:42:00,
2013-03-03 05:43:00,22.0,18.1,29.39,WNW,293,1.8,3.1,85,0.00,,,0.00,WUHU216HW,2013-03-03 10:43:00,
2013-03-03 05:46:00,22.0,18.4,29.39,North,0,0.9,3.1,86,0.00,,,0.00,WUHU216HW,2013-03-03 10:46:00,
2013-03-03 05:47:00,22.1,18.5,29.39,WSW,248,0.7,3.1,86,0.00,,,0.00,WUHU216HW,2013-03-03 10:47:00,
2013-03-03 05:48:00,22.0,18.4,29.39,West,270,0.4,3.1,86,0.00,,,0.00,WUHU216HW,2013-03-03 10:48:00,
2013-03-03 05:51:00,22.0,18.4,29.39,NNW,338,0.0,3.1,86,0.00,,,0.00,WUHU216HW,2013-03-03 10:51:00,
2013-03-03 05:52:00,22.0,18.4,29.39,NNW,338,0.0,1.8,86,0.00,,,0.00,WUHU216HW,2013-03-03 10:52:00,
2013-03-03 05:53:00,22.1,18.5,29.39,NNW,338,0.4,1.1,86,0.00,,,0.00,WUHU216HW,2013-03-03 10:53:00,
2013-03-03 05:56:00,22.1,18.5,29.39,WNW,293,1.1,1.3,86,0.00,,,0.00,WUHU216HW,2013-03-03 10:56:00,
2013-03-03 05:57:00,22.1,18.5,29.39,West,270,0.7,1.3,86,0.00,,,0.00,WUHU216HW,2013-03-03 10:57:00,
2013-03-03 05:58:00,22.1,18.5,29.39,West,270,0.7,1.3,86,0.00,,,0.00,WUHU216HW,2013-03-03 10:58:00,
2013-03-03 06:01:00,22.3,18.7,29.39,SW,225,0.4,1.3,86,0.00,,,0.00,WUHU216HW,2013-03-03 11:01:00,
2013-03-03 06:03:00,22.3,18.7,29.39,WSW,248,0.0,1.3,86,0.00,,,0.00,WUHU216HW,2013-03-03 11:03:00,
2013-03-03 06:04:00,22.3,18.7,29.39,NW,315,3.4,4.0,86,0.00,,,0.00,WUHU216HW,2013-03-03 11:04:00,
2013-03-03 06:06:00,22.5,18.9,29.39,North,0,0.4,4.0,86,0.00,,,0.00,WUHU216HW,2013-03-03 11:06:00,
2013-03-03 06:08:00,22.3,18.7,29.39,NW,315,0.7,4.0,86,0.00,,,0.00,WUHU216HW,2013-03-03 11:08:00,
2013-03-03 06:09:00,22.5,18.6,29.39,West,270,1.8,4.0,85,0.00,,,0.00,WUHU216HW,2013-03-03 11:09:00,
2013-03-03 06:11:00,22.3,18.5,29.39,NW,315,0.4,4.0,85,0.00,,,0.00,WUHU216HW,2013-03-03 11:11:00,
2013-03-03 06:13:00,22.3,18.5,29.39,WSW,248,1.8,4.0,85,0.00,,,0.00,WUHU216HW,2013-03-03 11:13:00,
2013-03-03 06:14:00,22.3,18.5,29.39,WSW,248,1.8,3.4,85,0.00,,,0.00,WUHU216HW,2013-03-03 11:14:00,
2013-03-03 06:16:00,22.3,18.5,29.39,NNW,338,1.3,2.7,85,0.00,,,0.00,WUHU216HW,2013-03-03 11:16:00,
2013-03-03 06:18:00,22.1,18.3,29.39,WNW,293,0.4,2.7,85,0.00,,,0.00,WUHU216HW,2013-03-03 11:18:00,
2013-03-03 06:19:00,22.1,18.5,29.39,NW,315,1.8,5.1,86,0.00,,,0.00,WUHU216HW,2013-03-03 11:19:00,
2013-03-03 06:21:00,22.1,18.5,29.39,NNW,338,0.4,5.1,86,0.00,,,0.00,WUHU216HW,2013-03-03 11:21:00,
2013-03-03 06:23:00,22.1,18.5,29.39,West,270,1.1,5.1,86,0.00,,,0.00,WUHU216HW,2013-03-03 11:23:00,
2013-03-03 06:24:00,22.1,18.5,29.39,NNW,338,1.6,5.1,86,0.00,,,0.00,WUHU216HW,2013-03-03 11:24:00,
2013-03-03 06:26:00,22.1,18.5,29.39,West,270,0.9,5.1,86,0.00,,,0.00,WUHU216HW,2013-03-03 11:26:00,
2013-03-03 06:28:00,22.1,18.5,29.39,West,270,0.2,5.1,86,0.00,,,0.00,WUHU216HW,2013-03-03 11:28:00,
2013-03-03 06:29:00,22.1,18.5,29.39,West,270,0.7,2.2,86,0.00,,,0.00,WUHU216HW,2013-03-03 11:29:00,
2013-03-03 06:31:00,22.1,18.5,29.39,WNW,293,1.1,2.2,86,0.00,,,0.00,WUHU216HW,2013-03-03 11:31:00,
2013-03-03 06:33:00,22.3,18.7,29.39,West,270,1.8,2.5,86,0.00,,,0.00,WUHU216HW,2013-03-03 11:33:00,
2013-03-03 06:34:00,22.3,18.7,29.39,West,270,2.7,2.7,86,0.00,,,0.00,WUHU216HW,2013-03-03 11:34:00,
2013-03-03 06:36:00,22.3,18.7,29.39,West,270,2.5,2.7,86,0.00,,,0.00,WUHU216HW,2013-03-03 11:36:00,
2013-03-03 06:39:00,22.3,18.7,29.40,NNW,338,0.4,2.7,86,0.00,,,0.00,WUHU216HW,2013-03-03 11:39:00,
2013-03-03 06:42:00,22.3,18.7,29.40,NNW,338,0.4,2.7,86,0.00,,,0.00,WUHU216HW,2013-03-03 11:42:00,
2013-03-03 06:44:00,22.3,18.7,29.40,NW,315,0.2,2.7,86,0.00,,,0.00,WUHU216HW,2013-03-03 11:44:00,
2013-03-03 06:47:00,22.3,18.7,29.40,West,270,1.8,2.7,86,0.00,,,0.00,WUHU216HW,2013-03-03 11:47:00,
2013-03-03 06:49:00,22.3,19.0,29.40,West,270,0.9,2.7,87,0.00,,,0.00,WUHU216HW,2013-03-03 11:49:00,
2013-03-03 06:52:00,22.3,18.7,29.40,WNW,293,1.1,2.5,86,0.00,,,0.00,WUHU216HW,2013-03-03 11:52:00,
2013-03-03 06:54:00,22.3,18.7,29.40,NNW,338,0.7,3.1,86,0.00,,,0.00,WUHU216HW,2013-03-03 11:54:00,
2013-03-03 06:57:00,22.3,18.7,29.40,West,270,1.1,3.1,86,0.00,,,0.00,WUHU216HW,2013-03-03 11:57:00,
2013-03-03 06:59:00,22.3,18.7,29.40,SW,225,2.2,3.1,86,0.00,,,0.00,WUHU216HW,2013-03-03 11:59:00,
2013-03-03 07:00:00,22.3,19.0,29.40,SW,225,0.2,3.1,87,0.00,,,0.00,WUHU216HW,2013-03-03 12:00:00,
2013-03-03 07:02:00,22.3,19.0,29.40,West,270,1.1,3.1,87,0.00,,,0.00,WUHU216HW,2013-03-03 12:02:00,
2013-03-03 07:04:00,22.3,19.0,29.40,North,0,3.8,3.8,87,0.00,,,0.00,WUHU216HW,2013-03-03 12:04:00,
2013-03-03 07:05:00,22.3,19.0,29.40,WNW,293,0.4,3.8,87,0.00,,,0.00,WUHU216HW,2013-03-03 12:05:00,
2013-03-03 07:07:00,22.3,19.0,29.40,West,270,1.8,5.4,87,0.00,,,0.00,WUHU216HW,2013-03-03 12:07:00,
2013-03-03 07:09:00,22.3,19.0,29.40,WNW,293,2.9,5.4,87,0.00,,,0.00,WUHU216HW,2013-03-03 12:09:00,
2013-03-03 07:11:00,22.5,19.2,29.40,WSW,248,0.4,5.4,87,0.00,,,0.00,WUHU216HW,2013-03-03 12:11:00,
2013-03-03 07:12:00,22.5,19.2,29.40,WSW,248,0.4,5.4,87,0.00,,,0.00,WUHU216HW,2013-03-03 12:12:00,
2013-03-03 07:14:00,22.5,19.2,29.40,NW,315,0.4,5.4,87,0.00,,,0.00,WUHU216HW,2013-03-03 12:14:00,
2013-03-03 07:15:00,22.7,19.4,29.40,NW,315,1.1,5.4,87,0.00,,,0.00,WUHU216HW,2013-03-03 12:15:00,
2013-03-03 07:16:00,22.7,19.4,29.40,NNW,338,0.7,4.0,87,0.00,,,0.00,WUHU216HW,2013-03-03 12:16:00,
2013-03-03 07:17:00,22.7,19.4,29.40,West,270,2.9,2.9,87,0.00,,,0.00,WUHU216HW,2013-03-03 12:17:00,
2013-03-03 07:19:00,22.7,19.4,29.41,WSW,248,0.4,2.9,87,0.00,,,0.00,WUHU216HW,2013-03-03 12:19:00,
2013-03-03 07:20:00,22.7,19.4,29.41,WSW,248,0.4,2.9,87,0.00,,,0.00,WUHU216HW,2013-03-03 12:20:00,
2013-03-03 07:21:00,22.7,19.4,29.40,WNW,293,2.2,2.9,87,0.00,,,0.00,WUHU216HW,2013-03-03 12:21:00,
2013-03-03 07:22:00,22.7,19.4,29.41,NW,315,2.5,2.9,87,0.00,,,0.00,WUHU216HW,2013-03-03 12:22:00,
2013-03-03 07:25:00,22.7,19.4,29.41,West,270,2.0,2.9,87,0.00,,,0.00,WUHU216HW,2013-03-03 12:25:00,
2013-03-03 07:26:00,22.7,19.1,29.41,West,270,1.3,2.9,86,0.00,,,0.00,WUHU216HW,2013-03-03 12:26:00,
2013-03-03 07:27:00,22.7,19.1,29.41,WNW,293,0.2,2.9,86,0.00,,,0.00,WUHU216HW,2013-03-03 12:27:00,
2013-03-03 07:30:00,22.7,19.1,29.41,West,270,0.4,2.9,86,0.00,,,0.00,WUHU216HW,2013-03-03 12:30:00,
2013-03-03 07:32:00,22.7,19.4,29.41,WNW,293,1.8,2.9,87,0.00,,,0.00,WUHU216HW,2013-03-03 12:32:00,
2013-03-03 07:35:00,22.7,19.4,29.41,NW,315,2.0,3.4,87,0.00,,,0.00,WUHU216HW,2013-03-03 12:35:00,
2013-03-03 07:37:00,22.7,19.4,29.41,West,270,4.5,4.5,87,0.00,,,0.00,WUHU216HW,2013-03-03 12:37:00,
2013-03-03 07:40:00,22.7,19.4,29.41,NW,315,0.4,4.5,87,0.00,,,0.00,WUHU216HW,2013-03-03 12:40:00,
2013-03-03 07:42:00,22.7,19.4,29.41,West,270,0.4,4.5,87,0.00,,,0.00,WUHU216HW,2013-03-03 12:42:00,
2013-03-03 07:45:00,22.7,19.4,29.41,WNW,293,2.0,4.5,87,0.00,,,0.00,WUHU216HW,2013-03-03 12:45:00,
2013-03-03 07:47:00,22.7,19.4,29.41,West,270,0.9,3.8,87,0.00,,,0.00,WUHU216HW,2013-03-03 12:47:00,
2013-03-03 07:50:00,22.7,19.1,29.41,NNW,338,0.2,3.6,86,0.00,,,0.00,WUHU216HW,2013-03-03 12:50:00,
2013-03-03 07:52:00,22.7,19.1,29.41,West,270,0.7,3.8,86,0.00,,,0.00,WUHU216HW,2013-03-03 12:52:00,
2013-03-03 07:55:00,22.9,19.3,29.41,WSW,248,1.1,3.8,86,0.00,,,0.00,WUHU216HW,2013-03-03 12:55:00,
2013-03-03 07:56:00,22.9,19.3,29.41,WSW,248,1.1,3.8,86,0.00,,,0.00,WUHU216HW,2013-03-03 12:56:00,
2013-03-03 07:57:00,22.9,19.5,29.41,NNW,338,0.2,3.8,87,0.00,,,0.00,WUHU216HW,2013-03-03 12:57:00,
2013-03-03 08:01:00,23.0,20.0,29.41,NNE,23,2.2,3.8,88,0.00,,,0.00,WUHU216HW,2013-03-03 13:01:00,
2013-03-03 08:02:00,23.0,19.7,29.41,NNW,338,0.4,3.8,87,0.00,,,0.00,WUHU216HW,2013-03-03 13:02:00,
2013-03-03 08:03:00,23.0,19.7,29.41,NW,315,1.1,2.5,87,0.00,,,0.00,WUHU216HW,2013-03-03 13:03:00,
2013-03-03 08:06:00,23.2,19.9,29.41,West,270,0.0,2.2,87,0.00,,,0.00,WUHU216HW,2013-03-03 13:06:00,
2013-03-03 08:07:00,23.2,19.9,29.41,West,270,0.0,2.2,87,0.00,,,0.00,WUHU216HW,2013-03-03 13:07:00,
2013-03-03 08:08:00,23.4,20.1,29.41,West,270,3.1,3.1,87,0.00,,,0.00,WUHU216HW,2013-03-03 13:08:00,
2013-03-03 08:11:00,23.4,20.1,29.41,NW,315,4.5,4.5,87,0.00,,,0.00,WUHU216HW,2013-03-03 13:11:00,
2013-03-03 08:12:00,23.4,20.1,29.41,West,270,1.1,4.5,87,0.00,,,0.00,WUHU216HW,2013-03-03 13:12:00,
2013-03-03 08:13:00,23.4,20.1,29.41,West,270,1.3,4.5,87,0.00,,,0.00,WUHU216HW,2013-03-03 13:13:00,
2013-03-03 08:16:00,23.6,20.3,29.41,West,270,4.0,5.1,87,0.00,,,0.00,WUHU216HW,2013-03-03 13:16:00,
2013-03-03 08:17:00,23.6,20.0,29.41,WNW,293,2.7,5.1,86,0.00,,,0.00,WUHU216HW,2013-03-03 13:17:00,
2013-03-03 08:18:00,23.8,20.2,29.41,ENE,68,1.6,5.1,86,0.00,,,0.00,WUHU216HW,2013-03-03 13:18:00,
2013-03-03 08:21:00,23.8,20.2,29.41,NNE,23,2.0,5.1,86,0.00,,,0.00,WUHU216HW,2013-03-03 13:21:00,
2013-03-03 08:22:00,23.9,20.3,29.41,West,270,0.9,5.1,86,0.00,,,0.00,WUHU216HW,2013-03-03 13:22:00,
2013-03-03 08:23:00,23.8,20.2,29.41,WNW,293,1.3,5.1,86,0.00,,,0.00,WUHU216HW,2013-03-03 13:23:00,
2013-03-03 08:26:00,23.9,20.3,29.41,WNW,293,2.7,3.4,86,0.00,,,0.00,WUHU216HW,2013-03-03 13:26:00,
2013-03-03 08:27:00,24.1,20.5,29.41,West,270,5.6,5.6,86,0.00,,,0.00,WUHU216HW,2013-03-03 13:27:00,
2013-03-03 08:28:00,24.1,20.5,29.41,West,270,5.6,5.6,86,0.00,,,0.00,WUHU216HW,2013-03-03 13:28:00,
2013-03-03 08:31:00,24.1,20.3,29.41,SSW,203,1.1,5.6,85,0.00,,,0.00,WUHU216HW,2013-03-03 13:31:00,
2013-03-03 08:32:00,24.1,20.3,29.41,NE,45,1.3,5.6,85,0.00,,,0.00,WUHU216HW,2013-03-03 13:32:00,
2013-03-03 08:33:00,24.1,20.3,29.41,NW,315,1.8,5.6,85,0.00,,,0.00,WUHU216HW,2013-03-03 13:33:00,
2013-03-03 08:36:00,24.5,20.6,29.41,WNW,293,0.7,5.6,85,0.00,,,0.00,WUHU216HW,2013-03-03 13:36:00,
2013-03-03 08:37:00,24.5,20.6,29.41,NE,45,2.5,5.6,85,0.00,,,0.00,WUHU216HW,2013-03-03 13:37:00,
2013-03-03 08:38:00,24.5,20.6,29.41,NNE,23,0.0,2.5,85,0.00,,,0.00,WUHU216HW,2013-03-03 13:38:00,
2013-03-03 08:39:00,24.7,20.8,29.41,WSW,248,2.2,2.5,85,0.00,,,0.00,WUHU216HW,2013-03-03 13:39:00,
2013-03-03 08:41:00,24.7,20.5,29.41,NNW,338,1.8,6.0,84,0.00,,,0.00,WUHU216HW,2013-03-03 13:41:00,
2013-03-03 08:43:00,24.7,20.5,29.41,WSW,248,0.4,6.0,84,0.00,,,0.00,WUHU216HW,2013-03-03 13:43:00,
2013-03-03 08:44:00,24.8,20.7,29.41,NW,315,1.3,6.0,84,0.00,,,0.00,WUHU216HW,2013-03-03 13:44:00,
2013-03-03 08:45:00,24.8,20.7,29.41,NNE,23,1.1,6.0,84,0.00,,,0.00,WUHU216HW,2013-03-03 13:45:00,
2013-03-03 08:47:00,24.8,20.7,29.41,WNW,293,0.7,6.0,84,0.00,,,0.00,WUHU216HW,2013-03-03 13:47:00,
2013-03-03 08:48:00,24.8,20.7,29.41,NNW,338,1.1,6.0,84,0.00,,,0.00,WUHU216HW,2013-03-03 13:48:00,
2013-03-03 08:49:00,24.7,20.5,29.41,West,270,2.2,6.0,84,0.00,,,0.00,WUHU216HW,2013-03-03 13:49:00,
2013-03-03 08:50:00,24.7,20.5,29.41,WNW,293,0.9,4.3,84,0.00,,,0.00,WUHU216HW,2013-03-03 13:50:00,
2013-03-03 08:52:00,24.7,20.5,29.41,West,270,1.3,4.9,84,0.00,,,0.00,WUHU216HW,2013-03-03 13:52:00,
2013-03-03 08:53:00,24.7,20.5,29.41,WNW,293,0.0,4.9,84,0.00,,,0.00,WUHU216HW,2013-03-03 13:53:00,
2013-03-03 08:54:00,24.5,20.3,29.41,NNW,338,2.0,4.9,84,0.00,,,0.00,WUHU216HW,2013-03-03 13:54:00,
2013-03-03 08:55:00,24.5,20.3,29.41,WNW,293,2.5,4.9,84,0.00,,,0.00,WUHU216HW,2013-03-03 13:55:00,
2013-03-03 08:57:00,24.8,20.7,29.41,NW,315,1.8,4.9,84,0.00,,,0.00,WUHU216HW,2013-03-03 13:57:00,
2013-03-03 08:58:00,24.8,20.7,29.41,WNW,293,3.1,5.8,84,0.00,,,0.00,WUHU216HW,2013-03-03 13:58:00,
2013-03-03 08:59:00,24.8,20.7,29.41,WNW,293,1.8,5.8,84,0.00,,,0.00,WUHU216HW,2013-03-03 13:59:00,
2013-03-03 09:00:00,24.8,20.7,29.41,West,270,0.7,5.8,84,0.00,,,0.00,WUHU216HW,2013-03-03 14:00:00,
2013-03-03 09:02:00,24.7,20.5,29.41,West,270,2.7,5.8,84,0.00,,,0.00,WUHU216HW,2013-03-03 14:02:00,
2013-03-03 09:03:00,24.7,20.5,29.41,North,0,1.3,7.8,84,0.00,,,0.00,WUHU216HW,2013-03-03 14:03:00,
2013-03-03 09:05:00,24.7,20.5,29.41,WSW,248,3.1,7.8,84,0.00,,,0.00,WUHU216HW,2013-03-03 14:05:00,
2013-03-03 09:07:00,24.5,20.3,29.41,NW,315,1.3,7.8,84,0.00,,,0.00,WUHU216HW,2013-03-03 14:07:00,
2013-03-03 09:09:00,24.5,20.3,29.41,West,270,1.1,7.8,84,0.00,,,0.00,WUHU216HW,2013-03-03 14:09:00,
2013-03-03 09:10:00,24.5,20.3,29.41,WSW,248,6.7,7.8,84,0.00,,,0.00,WUHU216HW,2013-03-03 14:10:00,
2013-03-03 09:12:00,24.5,20.3,29.41,NW,315,2.5,8.7,84,0.00,,,0.00,WUHU216HW,2013-03-03 14:12:00,
2013-03-03 09:14:00,24.5,20.3,29.41,WSW,248,2.2,8.7,84,0.00,,,0.00,WUHU216HW,2013-03-03 14:14:00,
2013-03-03 09:15:00,24.5,20.3,29.41,West,270,2.7,8.7,84,0.00,,,0.00,WUHU216HW,2013-03-03 14:15:00,
2013-03-03 09:17:00,24.7,20.5,29.41,NE,45,5.1,8.7,84,0.00,,,0.00,WUHU216HW,2013-03-03 14:17:00,
2013-03-03 09:19:00,24.8,20.7,29.41,NW,315,0.4,8.7,84,0.00,,,0.00,WUHU216HW,2013-03-03 14:19:00,
2013-03-03 09:20:00,24.8,20.7,29.41,West,270,1.1,8.7,84,0.00,,,0.00,WUHU216HW,2013-03-03 14:20:00,
2013-03-03 09:23:00,25.2,21.3,29.41,NNE,23,1.1,5.4,85,0.00,,,0.00,WUHU216HW,2013-03-03 14:23:00,
2013-03-03 09:24:00,25.2,21.1,29.41,WNW,293,0.9,5.4,84,0.00,,,0.00,WUHU216HW,2013-03-03 14:24:00,
2013-03-03 09:25:00,25.4,21.3,29.41,NW,315,0.9,5.1,84,0.00,,,0.00,WUHU216HW,2013-03-03 14:25:00,
2013-03-03 09:26:00,25.4,21.3,29.41,West,270,0.9,5.1,84,0.00,,,0.00,WUHU216HW,2013-03-03 14:26:00,
2013-03-03 09:28:00,25.6,21.1,29.41,NW,315,1.6,3.6,83,0.00,,,0.00,WUHU216HW,2013-03-03 14:28:00,
2013-03-03 09:29:00,25.6,21.1,29.41,ENE,68,0.7,3.4,83,0.00,,,0.00,WUHU216HW,2013-03-03 14:29:00,
2013-03-03 09:30:00,25.7,21.5,29.41,WNW,293,4.9,4.9,84,0.00,,,0.00,WUHU216HW,2013-03-03 14:30:00,
2013-03-03 09:31:00,25.7,21.2,29.40,WNW,293,6.9,6.9,83,0.00,,,0.00,WUHU216HW,2013-03-03 14:31:00,
2013-03-03 09:33:00,25.6,20.8,29.40,NW,315,1.1,6.9,82,0.00,,,0.00,WUHU216HW,2013-03-03 14:33:00,
2013-03-03 09:35:00,25.4,20.7,29.40,NW,315,1.1,6.9,82,0.00,,,0.00,WUHU216HW,2013-03-03 14:35:00,
2013-03-03 09:36:00,25.4,21.0,29.40,NW,315,2.0,6.9,83,0.00,,,0.00,WUHU216HW,2013-03-03 14:36:00,
2013-03-03 09:38:00,25.2,20.8,29.40,WNW,293,0.4,7.2,83,0.00,,,0.00,WUHU216HW,2013-03-03 14:38:00,
2013-03-03 09:40:00,25.2,20.8,29.41,NNW,338,1.3,7.2,83,0.00,,,0.00,WUHU216HW,2013-03-03 14:40:00,
2013-03-03 09:41:00,25.2,20.8,29.41,NNW,338,1.8,7.2,83,0.00,,,0.00,WUHU216HW,2013-03-03 14:41:00,
2013-03-03 09:43:00,25.0,20.6,29.41,NNW,338,3.4,7.2,83,0.00,,,0.00,WUHU216HW,2013-03-03 14:43:00,
2013-03-03 09:45:00,25.2,20.8,29.41,West,270,1.6,7.2,83,0.00,,,0.00,WUHU216HW,2013-03-03 14:45:00,
2013-03-03 09:46:00,25.4,21.3,29.41,NW,315,3.4,7.2,84,0.00,,,0.00,WUHU216HW,2013-03-03 14:46:00,
2013-03-03 09:48:00,25.6,21.4,29.41,West,270,1.8,4.0,84,0.00,,,0.00,WUHU216HW,2013-03-03 14:48:00,
2013-03-03 09:50:00,25.6,21.4,29.40,NW,315,0.9,4.0,84,0.00,,,0.00,WUHU216HW,2013-03-03 14:50:00,
2013-03-03 09:52:00,25.7,21.5,29.41,North,0,1.3,4.0,84,0.00,,,0.00,WUHU216HW,2013-03-03 14:52:00,
2013-03-03 09:53:00,25.9,21.4,29.41,WNW,293,1.6,4.0,83,0.00,,,0.00,WUHU216HW,2013-03-03 14:53:00,
2013-03-03 09:55:00,25.9,21.2,29.41,West,270,3.1,4.0,82,0.00,,,0.00,WUHU216HW,2013-03-03 14:55:00,
2013-03-03 09:57:00,25.7,21.0,29.41,NW,315,0.4,5.8,82,0.00,,,0.00,WUHU216HW,2013-03-03 14:57:00,
2013-03-03 09:58:00,25.7,21.0,29.41,WSW,248,1.8,5.8,82,0.00,,,0.00,WUHU216HW,2013-03-03 14:58:00,
2013-03-03 10:00:00,25.6,20.8,29.41,NNW,338,0.4,5.8,82,0.00,,,0.00,WUHU216HW,2013-03-03 15:00:00,
2013-03-03 10:02:00,25.7,21.2,29.40,NNW,338,4.0,5.8,83,0.00,,,0.00,WUHU216HW,2013-03-03 15:02:00,
2013-03-03 10:03:00,25.7,21.0,29.41,SW,225,0.9,5.8,82,0.00,,,0.00,WUHU216HW,2013-03-03 15:03:00,
2013-03-03 10:05:00,25.7,21.2,29.41,West,270,2.7,5.8,83,0.00,,,0.00,WUHU216HW,2013-03-03 15:05:00,
2013-03-03 10:06:00,25.7,21.2,29.41,NW,315,1.1,4.0,83,0.00,,,0.00,WUHU216HW,2013-03-03 15:06:00,
2013-03-03 10:07:00,25.6,20.8,29.41,WSW,248,2.5,4.0,82,0.00,,,0.00,WUHU216HW,2013-03-03 15:07:00,
2013-03-03 10:08:00,25.6,20.8,29.41,NNW,338,1.6,4.0,82,0.00,,,0.00,WUHU216HW,2013-03-03 15:08:00,
2013-03-03 10:10:00,25.6,20.8,29.41,NNW,338,2.5,4.7,82,0.00,,,0.00,WUHU216HW,2013-03-03 15:10:00,
2013-03-03 10:11:00,25.4,20.7,29.41,NW,315,2.5,5.6,82,0.00,,,0.00,WUHU216HW,2013-03-03 15:11:00,
2013-03-03 10:12:00,25.2,20.5,29.41,West,270,1.8,5.6,82,0.00,,,0.00,WUHU216HW,2013-03-03 15:12:00,
2013-03-03 10:13:00,25.2,20.8,29.41,WNW,293,1.6,6.9,83,0.00,,,0.00,WUHU216HW,2013-03-03 15:13:00,
2013-03-03 10:15:00,25.2,20.5,29.41,WNW,293,1.8,6.9,82,0.00,,,0.00,WUHU216HW,2013-03-03 15:15:00,
2013-03-03 10:16:00,25.0,20.4,29.41,NNW,338,0.4,6.9,82,0.00,,,0.00,WUHU216HW,2013-03-03 15:16:00,
2013-03-03 10:17:00,25.0,20.6,29.41,NW,315,1.8,6.9,83,0.00,,,0.00,WUHU216HW,2013-03-03 15:17:00,
2013-03-03 10:19:00,25.0,20.6,29.41,WSW,248,3.8,6.9,83,0.00,,,0.00,WUHU216HW,2013-03-03 15:19:00,
2013-03-03 10:20:00,25.2,20.8,29.41,NW,315,1.6,6.9,83,0.00,,,0.00,WUHU216HW,2013-03-03 15:20:00,
2013-03-03 10:21:00,25.2,21.1,29.41,WNW,293,1.8,6.9,84,0.00,,,0.00,WUHU216HW,2013-03-03 15:21:00,
2013-03-03 10:23:00,25.4,21.3,29.41,West,270,0.9,6.9,84,0.00,,,0.00,WUHU216HW,2013-03-03 15:23:00,
2013-03-03 10:24:00,25.4,21.3,29.41,WNW,293,0.4,6.9,84,0.00,,,0.00,WUHU216HW,2013-03-03 15:24:00,
2013-03-03 10:25:00,25.6,21.4,29.41,West,270,1.6,3.8,84,0.00,,,0.00,WUHU216HW,2013-03-03 15:25:00,
2013-03-03 10:26:00,25.7,21.5,29.41,WNW,293,4.7,4.7,84,0.00,,,0.00,WUHU216HW,2013-03-03 15:26:00,
2013-03-03 10:28:00,25.9,21.2,29.41,NNW,338,1.8,4.7,82,0.00,,,0.00,WUHU216HW,2013-03-03 15:28:00,
2013-03-03 10:29:00,26.1,21.3,29.41,WSW,248,2.5,4.7,82,0.00,,,0.00,WUHU216HW,2013-03-03 15:29:00,
2013-03-03 10:30:00,26.1,21.3,29.41,NW,315,3.1,4.7,82,0.00,,,0.00,WUHU216HW,2013-03-03 15:30:00,
2013-03-03 10:31:00,25.9,21.2,29.41,NW,315,0.4,4.7,82,0.00,,,0.00,WUHU216HW,2013-03-03 15:31:00,
2013-03-03 10:33:00,26.1,21.6,29.41,West,270,1.1,4.7,83,0.00,,,0.00,WUHU216HW,2013-03-03 15:33:00,
2013-03-03 10:34:00,26.3,21.8,29.41,West,270,2.2,4.7,83,0.00,,,0.00,WUHU216HW,2013-03-03 15:34:00,
2013-03-03 10:35:00,26.3,21.8,29.41,West,270,3.1,4.7,83,0.00,,,0.00,WUHU216HW,2013-03-03 15:35:00,
2013-03-03 10:36:00,26.5,21.7,29.41,WNW,293,2.7,3.6,82,0.00,,,0.00,WUHU216HW,2013-03-03 15:36:00,
2013-03-03 10:38:00,26.3,21.8,29.41,WSW,248,0.4,3.1,83,0.00,,,0.00,WUHU216HW,2013-03-03 15:38:00,
2013-03-03 10:39:00,26.3,21.8,29.41,WNW,293,1.1,3.1,83,0.00,,,0.00,WUHU216HW,2013-03-03 15:39:00,
2013-03-03 10:40:00,26.5,21.7,29.41,WNW,293,1.1,3.8,82,0.00,,,0.00,WUHU216HW,2013-03-03 15:40:00,
2013-03-03 10:42:00,26.3,21.5,29.41,NW,315,2.2,3.8,82,0.00,,,0.00,WUHU216HW,2013-03-03 15:42:00,
2013-03-03 10:43:00,26.3,21.5,29.41,West,270,2.0,5.8,82,0.00,,,0.00,WUHU216HW,2013-03-03 15:43:00,
2013-03-03 10:44:00,26.5,21.7,29.41,NW,315,2.7,5.8,82,0.00,,,0.00,WUHU216HW,2013-03-03 15:44:00,
2013-03-03 10:45:00,26.5,21.7,29.41,NW,315,1.1,5.8,82,0.00,,,0.00,WUHU216HW,2013-03-03 15:45:00,
2013-03-03 10:47:00,26.6,21.8,29.41,NW,315,2.2,5.8,82,0.00,,,0.00,WUHU216HW,2013-03-03 15:47:00,
2013-03-03 10:48:00,26.5,21.3,29.41,NW,315,3.6,5.8,81,0.00,,,0.00,WUHU216HW,2013-03-03 15:48:00,
2013-03-03 10:50:00,26.5,21.3,29.41,West,270,2.9,5.8,81,0.00,,,0.00,WUHU216HW,2013-03-03 15:50:00,
2013-03-03 10:52:00,26.6,21.8,29.41,West,270,1.1,5.8,82,0.00,,,0.00,WUHU216HW,2013-03-03 15:52:00,
2013-03-03 10:53:00,27.0,22.1,29.41,North,0,1.1,5.4,82,0.00,,,0.00,WUHU216HW,2013-03-03 15:53:00,
2013-03-03 10:55:00,27.0,21.9,29.41,West,270,1.6,5.4,81,0.00,,,0.00,WUHU216HW,2013-03-03 15:55:00,
2013-03-03 10:57:00,27.0,21.9,29.41,West,270,2.7,5.4,81,0.00,,,0.00,WUHU216HW,2013-03-03 15:57:00,
2013-03-03 10:58:00,27.0,21.9,29.41,NNW,338,1.1,5.4,81,0.00,,,0.00,WUHU216HW,2013-03-03 15:58:00,
2013-03-03 11:00:00,26.6,21.5,29.41,ENE,68,1.3,5.4,81,0.00,,,0.00,WUHU216HW,2013-03-03 16:00:00,
2013-03-03 11:01:00,26.6,21.5,29.41,ENE,68,1.3,5.4,81,0.00,,,0.00,WUHU216HW,2013-03-03 16:01:00,
2013-03-03 11:02:00,26.6,21.8,29.41,NE,45,2.9,3.4,82,0.00,,,0.00,WUHU216HW,2013-03-03 16:02:00,
2013-03-03 11:04:00,26.6,21.5,29.41,NW,315,4.0,4.0,81,0.00,,,0.00,WUHU216HW,2013-03-03 16:04:00,
2013-03-03 11:05:00,26.5,21.7,29.41,ESE,113,2.9,4.0,82,0.00,,,0.00,WUHU216HW,2013-03-03 16:05:00,
2013-03-03 11:06:00,26.5,21.7,29.41,ESE,113,2.9,4.0,82,0.00,,,0.00,WUHU216HW,2013-03-03 16:06:00,
2013-03-03 11:07:00,26.5,21.3,29.41,North,0,0.4,5.4,81,0.00,,,0.00,WUHU216HW,2013-03-03 16:07:00,
2013-03-03 11:09:00,26.5,22.0,29.41,NW,315,2.2,5.4,83,0.00,,,0.00,WUHU216HW,2013-03-03 16:09:00,
2013-03-03 11:10:00,26.5,21.7,29.41,NNE,23,1.6,5.4,82,0.00,,,0.00,WUHU216HW,2013-03-03 16:10:00,
2013-03-03 11:11:00,26.3,21.5,29.41,NNW,338,2.0,5.4,82,0.00,,,0.00,WUHU216HW,2013-03-03 16:11:00,
2013-03-03 11:12:00,26.5,22.0,29.41,NNW,338,1.3,5.4,83,0.00,,,0.00,WUHU216HW,2013-03-03 16:12:00,
2013-03-03 11:15:00,26.5,21.7,29.41,NW,315,3.6,5.4,82,0.00,,,0.00,WUHU216HW,2013-03-03 16:15:00,
2013-03-03 11:16:00,26.6,21.8,29.41,North,0,0.4,5.4,82,0.00,,,0.00,WUHU216HW,2013-03-03 16:16:00,
2013-03-03 11:17:00,26.5,21.7,29.41,North,0,2.0,3.8,82,0.00,,,0.00,WUHU216HW,2013-03-03 16:17:00,
2013-03-03 11:20:00,26.6,22.2,29.41,NW,315,0.7,6.3,83,0.00,,,0.00,WUHU216HW,2013-03-03 16:20:00,
2013-03-03 11:21:00,26.8,22.0,29.41,NNW,338,2.0,6.3,82,0.00,,,0.00,WUHU216HW,2013-03-03 16:21:00,
2013-03-03 11:22:00,26.6,21.5,29.41,NW,315,2.7,6.3,81,0.00,,,0.00,WUHU216HW,2013-03-03 16:22:00,
2013-03-03 11:25:00,26.3,21.3,29.41,North,0,2.2,6.3,81,0.00,,,0.00,WUHU216HW,2013-03-03 16:25:00,
2013-03-03 11:26:00,26.3,21.3,29.41,NNW,338,0.4,6.3,81,0.00,,,0.00,WUHU216HW,2013-03-03 16:26:00,
2013-03-03 11:27:00,26.5,21.7,29.41,WNW,293,3.6,6.3,82,0.00,,,0.00,WUHU216HW,2013-03-03 16:27:00,
2013-03-03 11:30:00,26.6,21.8,29.41,North,0,4.5,5.4,82,0.00,,,0.00,WUHU216HW,2013-03-03 16:30:00,
2013-03-03 11:31:00,26.5,21.7,29.41,NW,315,1.3,5.4,82,0.00,,,0.00,WUHU216HW,2013-03-03 16:31:00,
2013-03-03 11:32:00,26.5,21.7,29.41,NW,315,1.3,5.4,82,0.00,,,0.00,WUHU216HW,2013-03-03 16:32:00,
2013-03-03 11:33:00,26.5,21.7,29.41,West,270,2.5,5.4,82,0.00,,,0.00,WUHU216HW,2013-03-03 16:33:00,
2013-03-03 11:36:00,26.3,21.3,29.41,WNW,293,3.8,5.1,81,0.00,,,0.00,WUHU216HW,2013-03-03 16:36:00,
2013-03-03 11:37:00,26.3,21.5,29.41,WNW,293,0.4,5.1,82,0.00,,,0.00,WUHU216HW,2013-03-03 16:37:00,
2013-03-03 11:38:00,26.3,21.5,29.41,West,270,2.5,5.1,82,0.00,,,0.00,WUHU216HW,2013-03-03 16:38:00,
2013-03-03 11:41:00,26.3,21.8,29.41,WSW,248,4.0,5.8,83,0.00,,,0.00,WUHU216HW,2013-03-03 16:41:00,
2013-03-03 11:42:00,26.3,21.8,29.41,SW,225,1.8,5.8,83,0.00,,,0.00,WUHU216HW,2013-03-03 16:42:00,
2013-03-03 11:43:00,26.3,21.5,29.41,NNW,338,2.5,5.8,82,0.00,,,0.00,WUHU216HW,2013-03-03 16:43:00,
2013-03-03 11:46:00,26.3,21.3,29.41,WNW,293,2.9,7.2,81,0.00,,,0.00,WUHU216HW,2013-03-03 16:46:00,
2013-03-03 11:47:00,26.3,21.3,29.41,SW,225,3.8,7.2,81,0.00,,,0.00,WUHU216HW,2013-03-03 16:47:00,
2013-03-03 11:48:00,26.3,21.5,29.41,NNW,338,0.4,7.2,82,0.00,,,0.00,WUHU216HW,2013-03-03 16:48:00,
2013-03-03 11:51:00,27.0,21.9,29.41,WNW,293,3.8,7.2,81,0.00,,,0.00,WUHU216HW,2013-03-03 16:51:00,
2013-03-03 11:52:00,27.2,22.1,29.41,WNW,293,2.0,7.2,81,0.00,,,0.00,WUHU216HW,2013-03-03 16:52:00,
2013-03-03 11:53:00,27.2,22.1,29.41,NW,315,4.9,7.2,81,0.00,,,0.00,WUHU216HW,2013-03-03 16:53:00,
2013-03-03 11:56:00,27.0,21.3,29.41,NW,315,2.2,4.9,79,0.00,,,0.00,WUHU216HW,2013-03-03 16:56:00,
2013-03-03 11:58:00,27.0,21.3,29.41,SW,225,5.1,6.7,79,0.00,,,0.00,WUHU216HW,2013-03-03 16:58:00,
2013-03-03 12:01:00,26.6,21.2,29.41,WNW,293,6.3,7.6,80,0.00,,,0.00,WUHU216HW,2013-03-03 17:01:00,
2013-03-03 12:02:00,26.6,21.0,29.41,WNW,293,6.3,7.6,79,0.00,,,0.00,WUHU216HW,2013-03-03 17:02:00,
2013-03-03 12:03:00,26.6,21.2,29.41,NW,315,5.1,7.6,80,0.00,,,0.00,WUHU216HW,2013-03-03 17:03:00,
2013-03-03 12:07:00,26.6,21.2,29.41,NNW,338,1.1,7.6,80,0.00,,,0.00,WUHU216HW,2013-03-03 17:07:00,
2013-03-03 12:08:00,26.6,21.2,29.41,West,270,2.5,7.6,80,0.00,,,0.00,WUHU216HW,2013-03-03 17:08:00,
2013-03-03 12:12:00,27.0,21.3,29.41,NW,315,4.0,5.1,79,0.00,,,0.00,WUHU216HW,2013-03-03 17:12:00,
2013-03-03 12:13:00,27.0,21.0,29.41,WNW,293,3.1,4.5,78,0.00,,,0.00,WUHU216HW,2013-03-03 17:13:00,
2013-03-03 12:17:00,26.8,21.2,29.42,NW,315,4.3,4.3,79,0.00,,,0.00,WUHU216HW,2013-03-03 17:17:00,
2013-03-03 12:18:00,26.8,21.2,29.42,NW,315,0.9,4.3,79,0.00,,,0.00,WUHU216HW,2013-03-03 17:18:00,
2013-03-03 12:19:00,26.8,21.2,29.42,NW,315,0.9,4.3,79,0.00,,,0.00,WUHU216HW,2013-03-03 17:19:00,
2013-03-03 12:22:00,27.0,21.3,29.42,NW,315,3.8,4.3,79,0.00,,,0.00,WUHU216HW,2013-03-03 17:22:00,
2013-03-03 12:23:00,27.0,21.3,29.41,NW,315,3.8,4.3,79,0.00,,,0.00,WUHU216HW,2013-03-03 17:23:00,
2013-03-03 12:24:00,27.0,21.3,29.41,NW,315,0.4,4.3,79,0.00,,,0.00,WUHU216HW,2013-03-03 17:24:00,
2013-03-03 12:28:00,27.2,21.5,29.41,NW,315,3.4,4.0,79,0.00,,,0.00,WUHU216HW,2013-03-03 17:28:00,
2013-03-03 12:29:00,27.4,21.7,29.41,North,0,4.0,4.0,79,0.00,,,0.00,WUHU216HW,2013-03-03 17:29:00,
2013-03-03 12:33:00,27.4,21.7,29.41,NNW,338,1.3,4.0,79,0.00,,,0.00,WUHU216HW,2013-03-03 17:33:00,
2013-03-03 12:34:00,27.2,21.5,29.41,SSW,203,1.8,4.0,79,0.00,,,0.00,WUHU216HW,2013-03-03 17:34:00,
2013-03-03 12:35:00,27.0,21.3,29.41,SW,225,2.9,4.0,79,0.00,,,0.00,WUHU216HW,2013-03-03 17:35:00,
2013-03-03 12:38:00,27.2,21.5,29.41,West,270,1.3,5.6,79,0.00,,,0.00,WUHU216HW,2013-03-03 17:38:00,
2013-03-03 12:39:00,27.2,21.5,29.41,NW,315,3.4,5.8,79,0.00,,,0.00,WUHU216HW,2013-03-03 17:39:00,
2013-03-03 12:40:00,27.2,21.5,29.41,NW,315,1.1,5.8,79,0.00,,,0.00,WUHU216HW,2013-03-03 17:40:00,
2013-03-03 12:43:00,27.5,21.9,29.41,West,270,4.7,5.8,79,0.00,,,0.00,WUHU216HW,2013-03-03 17:43:00,
2013-03-03 12:45:00,27.5,21.9,29.41,WNW,293,2.9,5.8,79,0.00,,,0.00,WUHU216HW,2013-03-03 17:45:00,
2013-03-03 12:48:00,27.5,21.9,29.41,West,270,4.7,5.8,79,0.00,,,0.00,WUHU216HW,2013-03-03 17:48:00,
2013-03-03 12:50:00,27.4,21.3,29.41,NNW,338,1.6,5.8,78,0.00,,,0.00,WUHU216HW,2013-03-03 17:50:00,
2013-03-03 12:53:00,27.0,21.3,29.41,West,270,2.2,5.8,79,0.00,,,0.00,WUHU216HW,2013-03-03 17:53:00,
2013-03-03 12:54:00,27.0,21.0,29.41,WSW,248,3.4,5.8,78,0.00,,,0.00,WUHU216HW,2013-03-03 17:54:00,
2013-03-03 12:55:00,27.0,21.0,29.41,NNW,338,3.6,6.3,78,0.00,,,0.00,WUHU216HW,2013-03-03 17:55:00,
2013-03-03 12:58:00,26.8,21.2,29.41,WNW,293,4.0,6.3,79,0.00,,,0.00,WUHU216HW,2013-03-03 17:58:00,
2013-03-03 13:00:00,27.0,21.3,29.41,West,270,4.5,6.3,79,0.00,,,0.00,WUHU216HW,2013-03-03 18:00:00,
2013-03-03 13:01:00,27.0,21.3,29.41,NNE,23,2.9,6.3,79,0.00,,,0.00,WUHU216HW,2013-03-03 18:01:00,
2013-03-03 13:03:00,26.6,21.0,29.41,West,270,4.0,6.3,79,0.00,,,0.00,WUHU216HW,2013-03-03 18:03:00,
2013-03-03 13:04:00,26.6,21.0,29.41,North,0,1.6,6.3,79,0.00,,,0.00,WUHU216HW,2013-03-03 18:04:00,
2013-03-03 13:05:00,26.6,21.2,29.41,West,270,2.7,5.6,80,0.00,,,0.00,WUHU216HW,2013-03-03 18:05:00,
2013-03-03 13:06:00,26.6,21.2,29.41,North,0,2.0,5.6,80,0.00,,,0.00,WUHU216HW,2013-03-03 18:06:00,
2013-03-03 13:08:00,26.5,21.1,29.41,WNW,293,1.3,9.4,80,0.00,,,0.00,WUHU216HW,2013-03-03 18:08:00,
2013-03-03 13:09:00,26.3,20.9,29.41,NW,315,1.8,9.4,80,0.00,,,0.00,WUHU216HW,2013-03-03 18:09:00,
2013-03-03 13:10:00,26.3,20.9,29.41,WSW,248,6.3,9.4,80,0.00,,,0.00,WUHU216HW,2013-03-03 18:10:00,
2013-03-03 13:11:00,26.3,20.9,29.41,North,0,1.8,9.4,80,0.00,,,0.00,WUHU216HW,2013-03-03 18:11:00,
2013-03-03 13:13:00,26.5,21.1,29.41,SW,225,2.5,9.4,80,0.00,,,0.00,WUHU216HW,2013-03-03 18:13:00,
2013-03-03 13:14:00,26.6,21.2,29.41,NW,315,3.1,9.4,80,0.00,,,0.00,WUHU216HW,2013-03-03 18:14:00,
2013-03-03 13:15:00,26.6,21.2,29.41,WNW,293,2.9,9.4,80,0.00,,,0.00,WUHU216HW,2013-03-03 18:15:00,
2013-03-03 13:16:00,26.6,21.2,29.40,WNW,293,3.1,9.4,80,0.00,,,0.00,WUHU216HW,2013-03-03 18:16:00,
2013-03-03 13:18:00,26.6,21.2,29.41,NW,315,1.1,6.3,80,0.00,,,0.00,WUHU216HW,2013-03-03 18:18:00,
2013-03-03 13:19:00,26.8,21.4,29.40,WNW,293,2.0,6.3,80,0.00,,,0.00,WUHU216HW,2013-03-03 18:19:00,
2013-03-03 13:20:00,26.8,21.4,29.41,NW,315,1.8,6.3,80,0.00,,,0.00,WUHU216HW,2013-03-03 18:20:00,
2013-03-03 13:21:00,26.8,21.2,29.41,West,270,3.4,6.3,79,0.00,,,0.00,WUHU216HW,2013-03-03 18:21:00,
2013-03-03 13:23:00,26.6,21.2,29.40,NW,315,0.4,6.3,80,0.00,,,0.00,WUHU216HW,2013-03-03 18:23:00,
2013-03-03 13:24:00,26.6,21.2,29.40,West,270,1.8,5.8,80,0.00,,,0.00,WUHU216HW,2013-03-03 18:24:00,
2013-03-03 13:25:00,26.6,21.2,29.40,NW,315,2.7,5.8,80,0.00,,,0.00,WUHU216HW,2013-03-03 18:25:00,
2013-03-03 13:26:00,26.6,21.2,29.40,NW,315,2.7,5.8,80,0.00,,,0.00,WUHU216HW,2013-03-03 18:26:00,
2013-03-03 13:28:00,26.8,21.2,29.40,NW,315,2.7,5.8,79,0.00,,,0.00,WUHU216HW,2013-03-03 18:28:00,
2013-03-03 13:29:00,26.8,21.2,29.40,NW,315,0.9,5.8,79,0.00,,,0.00,WUHU216HW,2013-03-03 18:29:00,
2013-03-03 13:31:00,26.8,21.4,29.40,NW,315,1.3,5.8,80,0.00,,,0.00,WUHU216HW,2013-03-03 18:31:00,
2013-03-03 13:33:00,26.8,21.2,29.41,West,270,4.7,4.7,79,0.00,,,0.00,WUHU216HW,2013-03-03 18:33:00,
2013-03-03 13:34:00,26.6,21.0,29.41,WNW,293,2.5,4.7,79,0.00,,,0.00,WUHU216HW,2013-03-03 18:34:00,
2013-03-03 13:36:00,26.3,20.9,29.41,NW,315,1.1,4.7,80,0.00,,,0.00,WUHU216HW,2013-03-03 18:36:00,
2013-03-03 13:38:00,26.3,20.9,29.41,West,270,4.0,4.7,80,0.00,,,0.00,WUHU216HW,2013-03-03 18:38:00,
2013-03-03 13:39:00,26.3,20.9,29.41,NW,315,3.8,4.7,80,0.00,,,0.00,WUHU216HW,2013-03-03 18:39:00,
2013-03-03 13:41:00,26.3,20.9,29.40,SW,225,3.4,4.7,80,0.00,,,0.00,WUHU216HW,2013-03-03 18:41:00,
2013-03-03 13:43:00,26.3,20.9,29.41,NW,315,3.8,4.5,80,0.00,,,0.00,WUHU216HW,2013-03-03 18:43:00,
2013-03-03 13:44:00,26.3,20.9,29.41,WSW,248,3.4,4.5,80,0.00,,,0.00,WUHU216HW,2013-03-03 18:44:00,
2013-03-03 13:46:00,26.5,21.1,29.40,WSW,248,0.7,4.5,80,0.00,,,0.00,WUHU216HW,2013-03-03 18:46:00,
2013-03-03 13:48:00,26.6,21.2,29.40,West,270,1.6,4.5,80,0.00,,,0.00,WUHU216HW,2013-03-03 18:48:00,
2013-03-03 13:49:00,26.6,21.2,29.40,NNE,23,2.9,4.5,80,0.00,,,0.00,WUHU216HW,2013-03-03 18:49:00,
2013-03-03 13:51:00,26.5,20.8,29.40,WNW,293,1.1,4.5,79,0.00,,,0.00,WUHU216HW,2013-03-03 18:51:00,
2013-03-03 13:53:00,26.5,21.1,29.40,NW,315,0.2,4.5,80,0.00,,,0.00,WUHU216HW,2013-03-03 18:53:00,
2013-03-03 13:54:00,26.3,20.6,29.40,WSW,248,3.6,4.5,79,0.00,,,0.00,WUHU216HW,2013-03-03 18:54:00,
2013-03-03 13:56:00,26.3,20.9,29.41,NW,315,0.4,4.0,80,0.00,,,0.00,WUHU216HW,2013-03-03 18:56:00,
2013-03-03 13:57:00,26.3,20.9,29.41,WNW,293,0.7,4.0,80,0.00,,,0.00,WUHU216HW,2013-03-03 18:57:00,
2013-03-03 13:59:00,26.3,20.6,29.40,NNE,23,3.1,4.7,79,0.00,,,0.00,WUHU216HW,2013-03-03 18:59:00,
2013-03-03 14:01:00,26.3,20.6,29.40,North,0,1.6,5.4,79,0.00,,,0.00,WUHU216HW,2013-03-03 19:01:00,
2013-03-03 14:02:00,26.3,20.6,29.40,WNW,293,2.0,5.4,79,0.00,,,0.00,WUHU216HW,2013-03-03 19:02:00,
2013-03-03 14:04:00,26.1,20.8,29.40,NW,315,2.5,5.4,80,0.00,,,0.00,WUHU216HW,2013-03-03 19:04:00,
2013-03-03 14:05:00,25.9,20.3,29.40,WNW,293,4.9,10.5,79,0.00,,,0.00,WUHU216HW,2013-03-03 19:05:00,
2013-03-03 14:06:00,25.7,20.4,29.40,NW,315,2.0,10.5,80,0.00,,,0.00,WUHU216HW,2013-03-03 19:06:00,
2013-03-03 14:07:00,25.7,20.4,29.40,NW,315,2.0,10.5,80,0.00,,,0.00,WUHU216HW,2013-03-03 19:07:00,
2013-03-03 14:09:00,25.6,20.5,29.40,NW,315,1.1,10.5,81,0.00,,,0.00,WUHU216HW,2013-03-03 19:09:00,
2013-03-03 14:10:00,25.6,20.3,29.40,NNW,338,1.3,10.5,80,0.00,,,0.00,WUHU216HW,2013-03-03 19:10:00,
2013-03-03 14:12:00,25.6,20.3,29.40,NNW,338,1.1,10.5,80,0.00,,,0.00,WUHU216HW,2013-03-03 19:12:00,
2013-03-03 14:14:00,25.6,20.3,29.40,WSW,248,5.4,10.5,80,0.00,,,0.00,WUHU216HW,2013-03-03 19:14:00,
2013-03-03 14:15:00,25.6,20.3,29.40,NW,315,2.9,6.3,80,0.00,,,0.00,WUHU216HW,2013-03-03 19:15:00,
2013-03-03 14:17:00,25.4,20.1,29.40,WNW,293,4.3,6.3,80,0.00,,,0.00,WUHU216HW,2013-03-03 19:17:00,
2013-03-03 14:19:00,25.4,20.3,29.40,NW,315,1.1,6.3,81,0.00,,,0.00,WUHU216HW,2013-03-03 19:19:00,
2013-03-03 14:20:00,25.6,20.5,29.40,WNW,293,1.6,6.3,81,0.00,,,0.00,WUHU216HW,2013-03-03 19:20:00,
2013-03-03 14:22:00,25.4,20.3,29.40,West,270,4.9,6.3,81,0.00,,,0.00,WUHU216HW,2013-03-03 19:22:00,
2013-03-03 14:24:00,25.2,20.0,29.40,NNE,23,3.1,5.4,80,0.00,,,0.00,WUHU216HW,2013-03-03 19:24:00,
2013-03-03 14:25:00,25.2,20.3,29.40,NNW,338,1.6,6.0,81,0.00,,,0.00,WUHU216HW,2013-03-03 19:25:00,
2013-03-03 14:27:00,25.2,20.0,29.40,WNW,293,3.4,6.0,80,0.00,,,0.00,WUHU216HW,2013-03-03 19:27:00,
2013-03-03 14:29:00,25.2,20.0,29.40,NW,315,3.8,6.0,80,0.00,,,0.00,WUHU216HW,2013-03-03 19:29:00,
2013-03-03 14:30:00,25.2,20.3,29.40,NW,315,2.5,6.0,81,0.00,,,0.00,WUHU216HW,2013-03-03 19:30:00,
2013-03-03 14:32:00,25.2,20.3,29.41,WNW,293,3.6,6.0,81,0.00,,,0.00,WUHU216HW,2013-03-03 19:32:00,
2013-03-03 14:34:00,25.0,19.8,29.40,SW,225,3.4,6.0,80,0.00,,,0.00,WUHU216HW,2013-03-03 19:34:00,
2013-03-03 14:35:00,25.0,19.8,29.40,NW,315,3.6,6.0,80,0.00,,,0.00,WUHU216HW,2013-03-03 19:35:00,
2013-03-03 14:37:00,24.8,19.9,29.40,NNW,338,1.6,6.0,81,0.00,,,0.00,WUHU216HW,2013-03-03 19:37:00,
2013-03-03 14:39:00,25.0,19.8,29.40,WNW,293,3.4,5.8,80,0.00,,,0.00,WUHU216HW,2013-03-03 19:39:00,
2013-03-03 14:41:00,25.0,19.8,29.40,WNW,293,1.8,5.8,80,0.00,,,0.00,WUHU216HW,2013-03-03 19:41:00,
2013-03-03 14:42:00,25.0,19.8,29.40,WNW,293,1.8,5.8,80,0.00,,,0.00,WUHU216HW,2013-03-03 19:42:00,
2013-03-03 14:44:00,25.4,20.3,29.40,NW,315,0.7,5.8,81,0.00,,,0.00,WUHU216HW,2013-03-03 19:44:00,
2013-03-03 14:46:00,25.6,20.3,29.40,NW,315,4.9,5.1,80,0.00,,,0.00,WUHU216HW,2013-03-03 19:46:00,
2013-03-03 14:47:00,25.7,20.4,29.41,WNW,293,1.8,5.1,80,0.00,,,0.00,WUHU216HW,2013-03-03 19:47:00,
2013-03-03 14:49:00,25.6,20.3,29.40,NNW,338,1.1,6.9,80,0.00,,,0.00,WUHU216HW,2013-03-03 19:49:00,
2013-03-03 14:51:00,25.6,20.3,29.41,WNW,293,1.8,6.9,80,0.00,,,0.00,WUHU216HW,2013-03-03 19:51:00,
2013-03-03 14:52:00,25.6,20.3,29.41,NW,315,0.9,6.9,80,0.00,,,0.00,WUHU216HW,2013-03-03 19:52:00,
2013-03-03 14:54:00,25.9,20.6,29.41,West,270,1.1,6.9,80,0.00,,,0.00,WUHU216HW,2013-03-03 19:54:00,
2013-03-03 14:56:00,26.3,21.3,29.41,NW,315,1.1,6.9,81,0.00,,,0.00,WUHU216HW,2013-03-03 19:56:00,
2013-03-03 14:57:00,26.6,21.0,29.40,WNW,293,0.2,6.9,79,0.00,,,0.00,WUHU216HW,2013-03-03 19:57:00,
2013-03-03 14:58:00,26.8,21.2,29.40,NW,315,3.4,6.9,79,0.00,,,0.00,WUHU216HW,2013-03-03 19:58:00,
2013-03-03 14:59:00,26.6,20.4,29.41,NNW,338,1.1,5.1,77,0.00,,,0.00,WUHU216HW,2013-03-03 19:59:00,
2013-03-03 15:01:00,26.5,20.4,29.40,WNW,293,3.1,5.1,78,0.00,,,0.00,WUHU216HW,2013-03-03 20:01:00,
2013-03-03 15:03:00,26.5,20.4,29.41,NW,315,1.1,5.1,78,0.00,,,0.00,WUHU216HW,2013-03-03 20:03:00,
2013-03-03 15:05:00,26.5,20.8,29.41,NW,315,2.7,5.1,79,0.00,,,0.00,WUHU216HW,2013-03-03 20:05:00,
2013-03-03 15:06:00,26.5,20.4,29.40,NW,315,0.2,5.1,78,0.00,,,0.00,WUHU216HW,2013-03-03 20:06:00,
2013-03-03 15:08:00,26.5,20.4,29.40,NNW,338,0.2,5.1,78,0.00,,,0.00,WUHU216HW,2013-03-03 20:08:00,
2013-03-03 15:10:00,26.6,21.0,29.41,WNW,293,0.0,5.6,79,0.00,,,0.00,WUHU216HW,2013-03-03 20:10:00,
2013-03-03 15:11:00,26.8,20.5,29.40,West,270,4.7,5.6,77,0.00,,,0.00,WUHU216HW,2013-03-03 20:11:00,
2013-03-03 15:13:00,26.6,20.0,29.40,NW,315,3.6,5.6,76,0.00,,,0.00,WUHU216HW,2013-03-03 20:13:00,
2013-03-03 15:15:00,26.5,19.5,29.40,NW,315,1.8,5.6,75,0.00,,,0.00,WUHU216HW,2013-03-03 20:15:00,
2013-03-03 15:16:00,26.5,19.9,29.40,West,270,0.2,5.6,76,0.00,,,0.00,WUHU216HW,2013-03-03 20:16:00,
2013-03-03 15:18:00,26.5,20.2,29.41,West,270,1.8,5.6,77,0.00,,,0.00,WUHU216HW,2013-03-03 20:18:00,
2013-03-03 15:20:00,26.5,19.9,29.41,WNW,293,0.7,5.1,76,0.00,,,0.00,WUHU216HW,2013-03-03 20:20:00,
2013-03-03 15:21:00,26.5,19.9,29.41,NW,315,5.6,5.6,76,0.00,,,0.00,WUHU216HW,2013-03-03 20:21:00,
2013-03-03 15:23:00,26.5,19.9,29.40,West,270,0.9,5.6,76,0.00,,,0.00,WUHU216HW,2013-03-03 20:23:00,
2013-03-03 15:25:00,26.3,19.4,29.41,NE,45,1.3,5.6,75,0.00,,,0.00,WUHU216HW,2013-03-03 20:25:00,
2013-03-03 15:26:00,26.3,19.4,29.41,NW,315,2.5,6.5,75,0.00,,,0.00,WUHU216HW,2013-03-03 20:26:00,
2013-03-03 15:28:00,26.1,19.2,29.41,North,0,2.5,6.5,75,0.00,,,0.00,WUHU216HW,2013-03-03 20:28:00,
2013-03-03 15:30:00,25.9,19.0,29.41,WNW,293,4.0,6.5,75,0.00,,,0.00,WUHU216HW,2013-03-03 20:30:00,
2013-03-03 15:31:00,25.9,19.0,29.41,NW,315,0.9,6.5,75,0.00,,,0.00,WUHU216HW,2013-03-03 20:31:00,
2013-03-03 15:33:00,25.9,19.0,29.41,SW,225,1.1,6.5,75,0.00,,,0.00,WUHU216HW,2013-03-03 20:33:00,
2013-03-03 15:35:00,25.9,19.0,29.41,WSW,248,2.9,6.5,75,0.00,,,0.00,WUHU216HW,2013-03-03 20:35:00,
2013-03-03 15:37:00,25.9,19.0,29.40,WSW,248,1.3,6.5,75,0.00,,,0.00,WUHU216HW,2013-03-03 20:37:00,
2013-03-03 15:38:00,25.7,18.8,29.41,NW,315,5.4,6.5,75,0.00,,,0.00,WUHU216HW,2013-03-03 20:38:00,
2013-03-03 15:40:00,25.7,18.8,29.41,North,0,1.3,6.5,75,0.00,,,0.00,WUHU216HW,2013-03-03 20:40:00,
2013-03-03 15:42:00,25.7,18.8,29.41,North,0,1.8,6.5,75,0.00,,,0.00,WUHU216HW,2013-03-03 20:42:00,
2013-03-03 15:43:00,25.7,18.8,29.41,WNW,293,4.7,6.5,75,0.00,,,0.00,WUHU216HW,2013-03-03 20:43:00,
2013-03-03 15:45:00,25.7,18.8,29.41,North,0,2.7,5.6,75,0.00,,,0.00,WUHU216HW,2013-03-03 20:45:00,
2013-03-03 15:47:00,25.7,18.8,29.41,NNW,338,1.1,6.9,75,0.00,,,0.00,WUHU216HW,2013-03-03 20:47:00,
2013-03-03 15:48:00,25.9,18.7,29.41,NNE,23,1.8,6.9,74,0.00,,,0.00,WUHU216HW,2013-03-03 20:48:00,
2013-03-03 15:49:00,25.7,18.5,29.42,West,270,2.2,6.9,74,0.00,,,0.00,WUHU216HW,2013-03-03 20:49:00,
2013-03-03 15:51:00,25.7,18.5,29.42,NNW,338,3.6,6.9,74,0.00,,,0.00,WUHU216HW,2013-03-03 20:51:00,
2013-03-03 15:52:00,25.6,18.4,29.42,West,270,0.4,6.9,74,0.00,,,0.00,WUHU216HW,2013-03-03 20:52:00,
2013-03-03 15:54:00,25.6,18.4,29.42,WNW,293,2.0,6.9,74,0.00,,,0.00,WUHU216HW,2013-03-03 20:54:00,
2013-03-03 15:56:00,25.7,18.8,29.42,West,270,0.4,6.9,75,0.00,,,0.00,WUHU216HW,2013-03-03 20:56:00,
2013-03-03 15:57:00,25.9,19.0,29.42,NW,315,1.1,3.8,75,0.00,,,0.00,WUHU216HW,2013-03-03 20:57:00,
2013-03-03 15:59:00,25.9,19.0,29.42,NW,315,1.1,3.8,75,0.00,,,0.00,WUHU216HW,2013-03-03 20:59:00,
2013-03-03 16:01:00,25.9,18.7,29.42,West,270,1.8,3.6,74,0.00,,,0.00,WUHU216HW,2013-03-03 21:01:00,
2013-03-03 16:02:00,25.9,18.7,29.42,NW,315,4.7,4.7,74,0.00,,,0.00,WUHU216HW,2013-03-03 21:02:00,
2013-03-03 16:04:00,25.9,18.7,29.42,NW,315,1.3,4.7,74,0.00,,,0.00,WUHU216HW,2013-03-03 21:04:00,
2013-03-03 16:06:00,25.9,18.7,29.42,West,270,1.3,4.7,74,0.00,,,0.00,WUHU216HW,2013-03-03 21:06:00,
2013-03-03 16:08:00,25.7,18.5,29.42,NNW,338,1.1,4.7,74,0.00,,,0.00,WUHU216HW,2013-03-03 21:08:00,
2013-03-03 16:09:00,25.6,18.1,29.42,West,270,6.0,6.9,73,0.00,,,0.00,WUHU216HW,2013-03-03 21:09:00,
2013-03-03 16:11:00,25.6,18.4,29.42,NW,315,1.3,6.9,74,0.00,,,0.00,WUHU216HW,2013-03-03 21:11:00,
2013-03-03 16:13:00,25.4,17.6,29.42,NW,315,1.1,6.9,72,0.00,,,0.00,WUHU216HW,2013-03-03 21:13:00,
2013-03-03 16:14:00,25.4,17.9,29.42,NE,45,0.4,6.9,73,0.00,,,0.00,WUHU216HW,2013-03-03 21:14:00,
2013-03-03 16:16:00,25.6,18.1,29.42,West,270,1.6,6.9,73,0.00,,,0.00,WUHU216HW,2013-03-03 21:16:00,
2013-03-03 16:18:00,25.6,18.1,29.42,NW,315,1.3,6.9,73,0.00,,,0.00,WUHU216HW,2013-03-03 21:18:00,
2013-03-03 16:19:00,25.6,18.1,29.42,NNW,338,3.6,6.0,73,0.00,,,0.00,WUHU216HW,2013-03-03 21:19:00,
2013-03-03 16:21:00,25.6,18.4,29.42,WSW,248,1.1,6.3,74,0.00,,,0.00,WUHU216HW,2013-03-03 21:21:00,
2013-03-03 16:23:00,25.6,18.7,29.42,NW,315,1.1,6.3,75,0.00,,,0.00,WUHU216HW,2013-03-03 21:23:00,
2013-03-03 16:24:00,25.6,18.7,29.42,North,0,1.8,6.3,75,0.00,,,0.00,WUHU216HW,2013-03-03 21:24:00,
2013-03-03 16:25:00,25.6,18.4,29.42,NW,315,0.7,6.3,74,0.00,,,0.00,WUHU216HW,2013-03-03 21:25:00,
2013-03-03 16:26:00,25.6,18.7,29.42,WSW,248,1.1,6.3,75,0.00,,,0.00,WUHU216HW,2013-03-03 21:26:00,
2013-03-03 16:28:00,25.6,19.0,29.42,West,270,3.1,6.3,76,0.00,,,0.00,WUHU216HW,2013-03-03 21:28:00,
2013-03-03 16:29:00,25.6,19.4,29.42,SW,225,2.7,5.8,77,0.00,,,0.00,WUHU216HW,2013-03-03 21:29:00,
2013-03-03 16:30:00,25.6,19.4,29.42,WNW,293,3.8,4.0,77,0.00,,,0.00,WUHU216HW,2013-03-03 21:30:00,
2013-03-03 16:31:00,25.6,19.4,29.42,NW,315,1.1,3.8,77,0.00,,,0.00,WUHU216HW,2013-03-03 21:31:00,
2013-03-03 16:33:00,25.6,19.6,29.42,NW,315,3.4,4.0,78,0.00,,,0.00,WUHU216HW,2013-03-03 21:33:00,
2013-03-03 16:35:00,25.6,19.6,29.42,West,270,2.7,4.0,78,0.00,,,0.00,WUHU216HW,2013-03-03 21:35:00,
2013-03-03 16:36:00,25.4,19.4,29.42,SW,225,1.8,4.0,78,0.00,,,0.00,WUHU216HW,2013-03-03 21:36:00,
2013-03-03 16:38:00,25.6,20.0,29.42,West,270,3.4,4.0,79,0.00,,,0.00,WUHU216HW,2013-03-03 21:38:00,
2013-03-03 16:40:00,25.6,20.0,29.42,West,270,0.4,4.0,79,0.00,,,0.00,WUHU216HW,2013-03-03 21:40:00,
2013-03-03 16:41:00,25.6,20.0,29.43,WSW,248,1.6,4.0,79,0.00,,,0.00,WUHU216HW,2013-03-03 21:41:00,
2013-03-03 16:43:00,25.6,20.0,29.42,WSW,248,0.2,3.4,79,0.00,,,0.00,WUHU216HW,2013-03-03 21:43:00,
2013-03-03 16:45:00,25.7,20.1,29.43,WSW,248,0.0,3.4,79,0.00,,,0.00,WUHU216HW,2013-03-03 21:45:00,
2013-03-03 16:47:00,25.9,20.6,29.43,West,270,3.4,3.4,80,0.00,,,0.00,WUHU216HW,2013-03-03 21:47:00,
2013-03-03 16:48:00,25.9,20.6,29.43,NW,315,0.7,3.4,80,0.00,,,0.00,WUHU216HW,2013-03-03 21:48:00,
2013-03-03 16:50:00,25.9,20.6,29.43,West,270,1.6,3.4,80,0.00,,,0.00,WUHU216HW,2013-03-03 21:50:00,
2013-03-03 16:51:00,25.9,20.6,29.43,West,270,1.3,3.4,80,0.00,,,0.00,WUHU216HW,2013-03-03 21:51:00,
2013-03-03 16:52:00,25.9,20.6,29.43,NNW,338,0.4,3.4,80,0.00,,,0.00,WUHU216HW,2013-03-03 21:52:00,
2013-03-03 16:53:00,26.1,20.8,29.43,West,270,1.8,3.4,80,0.00,,,0.00,WUHU216HW,2013-03-03 21:53:00,
2013-03-03 16:55:00,26.1,20.8,29.43,SW,225,1.8,3.4,80,0.00,,,0.00,WUHU216HW,2013-03-03 21:55:00,
2013-03-03 16:56:00,26.1,20.8,29.43,West,270,0.4,3.4,80,0.00,,,0.00,WUHU216HW,2013-03-03 21:56:00,
2013-03-03 16:57:00,26.3,20.9,29.43,WNW,293,0.0,2.0,80,0.00,,,0.00,WUHU216HW,2013-03-03 21:57:00,
2013-03-03 16:58:00,26.3,20.9,29.43,WNW,293,0.4,1.8,80,0.00,,,0.00,WUHU216HW,2013-03-03 21:58:00,
2013-03-03 17:00:00,26.1,21.1,29.43,WNW,293,0.4,2.0,81,0.00,,,0.00,WUHU216HW,2013-03-03 22:00:00,
2013-03-03 17:01:00,26.1,20.8,29.43,WNW,293,0.4,2.0,80,0.00,,,0.00,WUHU216HW,2013-03-03 22:01:00,
2013-03-03 17:02:00,25.9,20.9,29.43,West,270,0.7,2.0,81,0.00,,,0.00,WUHU216HW,2013-03-03 22:02:00,
2013-03-03 17:03:00,25.7,20.4,29.43,West,270,1.8,2.0,80,0.00,,,0.00,WUHU216HW,2013-03-03 22:03:00,
2013-03-03 17:05:00,25.6,20.3,29.43,West,270,0.4,2.0,80,0.00,,,0.00,WUHU216HW,2013-03-03 22:05:00,
2013-03-03 17:06:00,25.6,20.3,29.43,West,270,0.4,2.0,80,0.00,,,0.00,WUHU216HW,2013-03-03 22:06:00,
2013-03-03 17:08:00,25.6,20.5,29.43,NW,315,0.4,2.0,81,0.00,,,0.00,WUHU216HW,2013-03-03 22:08:00,
2013-03-03 17:09:00,25.6,20.5,29.43,West,270,0.4,2.0,81,0.00,,,0.00,WUHU216HW,2013-03-03 22:09:00,
2013-03-03 17:11:00,25.4,20.7,29.43,NW,315,1.1,2.9,82,0.00,,,0.00,WUHU216HW,2013-03-03 22:11:00,
2013-03-03 17:13:00,25.2,20.5,29.43,NW,315,0.2,2.9,82,0.00,,,0.00,WUHU216HW,2013-03-03 22:13:00,
2013-03-03 17:14:00,25.2,20.5,29.43,West,270,3.4,5.4,82,0.00,,,0.00,WUHU216HW,2013-03-03 22:14:00,
2013-03-03 17:16:00,25.2,20.8,29.43,NW,315,1.6,5.4,83,0.00,,,0.00,WUHU216HW,2013-03-03 22:16:00,
2013-03-03 17:18:00,25.2,20.5,29.43,NW,315,1.1,5.4,82,0.00,,,0.00,WUHU216HW,2013-03-03 22:18:00,
2013-03-03 17:19:00,25.2,20.5,29.43,NNW,338,0.0,5.4,82,0.00,,,0.00,WUHU216HW,2013-03-03 22:19:00,
2013-03-03 17:21:00,25.4,21.0,29.43,WNW,293,4.7,5.4,83,0.00,,,0.00,WUHU216HW,2013-03-03 22:21:00,
2013-03-03 17:23:00,25.4,21.0,29.43,WNW,293,2.0,5.4,83,0.00,,,0.00,WUHU216HW,2013-03-03 22:23:00,
2013-03-03 17:24:00,25.4,21.0,29.43,WNW,293,2.0,4.7,83,0.00,,,0.00,WUHU216HW,2013-03-03 22:24:00,
2013-03-03 17:26:00,25.4,20.7,29.44,NNW,338,0.7,4.7,82,0.00,,,0.00,WUHU216HW,2013-03-03 22:26:00,
2013-03-03 17:28:00,25.6,20.8,29.44,NNW,338,1.6,4.7,82,0.00,,,0.00,WUHU216HW,2013-03-03 22:28:00,
2013-03-03 17:29:00,25.6,20.8,29.43,West,270,1.1,4.7,82,0.00,,,0.00,WUHU216HW,2013-03-03 22:29:00,
2013-03-03 17:31:00,25.6,20.8,29.43,West,270,1.6,4.7,82,0.00,,,0.00,WUHU216HW,2013-03-03 22:31:00,
2013-03-03 17:33:00,25.2,20.5,29.44,WNW,293,0.4,4.0,82,0.00,,,0.00,WUHU216HW,2013-03-03 22:33:00,
2013-03-03 17:34:00,25.2,20.5,29.43,West,270,2.2,4.0,82,0.00,,,0.00,WUHU216HW,2013-03-03 22:34:00,
2013-03-03 17:36:00,25.0,20.4,29.44,NNW,338,1.3,4.7,82,0.00,,,0.00,WUHU216HW,2013-03-03 22:36:00,
2013-03-03 17:37:00,25.0,20.4,29.44,NW,315,1.1,4.7,82,0.00,,,0.00,WUHU216HW,2013-03-03 22:37:00,
2013-03-03 17:38:00,24.8,20.2,29.44,NNE,23,0.4,4.7,82,0.00,,,0.00,WUHU216HW,2013-03-03 22:38:00,
2013-03-03 17:39:00,24.8,20.2,29.44,WSW,248,2.5,5.6,82,0.00,,,0.00,WUHU216HW,2013-03-03 22:39:00,
2013-03-03 17:41:00,24.8,20.4,29.44,NW,315,3.4,5.6,83,0.00,,,0.00,WUHU216HW,2013-03-03 22:41:00,
2013-03-03 17:42:00,24.8,20.4,29.44,NW,315,2.5,5.6,83,0.00,,,0.00,WUHU216HW,2013-03-03 22:42:00,
2013-03-03 17:43:00,24.5,20.1,29.44,West,270,1.6,5.6,83,0.00,,,0.00,WUHU216HW,2013-03-03 22:43:00,
2013-03-03 17:44:00,24.5,20.1,29.44,NW,315,1.1,5.6,83,0.00,,,0.00,WUHU216HW,2013-03-03 22:44:00,
2013-03-03 17:47:00,24.5,20.1,29.44,WNW,293,4.0,5.6,83,0.00,,,0.00,WUHU216HW,2013-03-03 22:47:00,
2013-03-03 17:48:00,24.3,19.9,29.44,West,270,2.0,5.6,83,0.00,,,0.00,WUHU216HW,2013-03-03 22:48:00,
2013-03-03 17:49:00,24.3,19.9,29.44,WNW,293,1.3,4.0,83,0.00,,,0.00,WUHU216HW,2013-03-03 22:49:00,
2013-03-03 17:52:00,24.3,19.9,29.44,WNW,293,0.9,4.0,83,0.00,,,0.00,WUHU216HW,2013-03-03 22:52:00,
2013-03-03 17:53:00,24.3,20.2,29.44,NW,315,0.7,4.0,84,0.00,,,0.00,WUHU216HW,2013-03-03 22:53:00,
2013-03-03 17:54:00,24.3,20.2,29.44,NNW,338,0.4,4.0,84,0.00,,,0.00,WUHU216HW,2013-03-03 22:54:00,
2013-03-03 17:57:00,24.3,19.9,29.44,West,270,1.6,3.4,83,0.00,,,0.00,WUHU216HW,2013-03-03 22:57:00,
2013-03-03 17:59:00,24.3,19.9,29.44,West,270,1.8,3.4,83,0.00,,,0.00,WUHU216HW,2013-03-03 22:59:00,
2013-03-03 18:02:00,24.3,19.6,29.44,West,270,0.4,3.4,82,0.00,,,0.00,WUHU216HW,2013-03-03 23:02:00,
2013-03-03 18:04:00,24.3,19.6,29.44,WSW,248,1.1,4.9,82,0.00,,,0.00,WUHU216HW,2013-03-03 23:04:00,
2013-03-03 18:07:00,24.3,19.6,29.44,West,270,1.3,4.9,82,0.00,,,0.00,WUHU216HW,2013-03-03 23:07:00,
2013-03-03 18:09:00,24.1,19.4,29.44,WNW,293,1.8,4.9,82,0.00,,,0.00,WUHU216HW,2013-03-03 23:09:00,
2013-03-03 18:10:00,24.3,19.6,29.44,NW,315,0.4,4.9,82,0.00,,,0.00,WUHU216HW,2013-03-03 23:10:00,
2013-03-03 18:12:00,24.1,19.2,29.44,NW,315,0.4,4.9,81,0.00,,,0.00,WUHU216HW,2013-03-03 23:12:00,
2013-03-03 18:14:00,24.1,19.2,29.44,WSW,248,1.8,3.4,81,0.00,,,0.00,WUHU216HW,2013-03-03 23:14:00,
2013-03-03 18:15:00,24.1,19.2,29.44,NW,315,0.2,3.4,81,0.00,,,0.00,WUHU216HW,2013-03-03 23:15:00,
2013-03-03 18:17:00,24.1,19.2,29.44,WSW,248,2.0,3.4,81,0.00,,,0.00,WUHU216HW,2013-03-03 23:17:00,
2013-03-03 18:18:00,24.1,19.2,29.44,WSW,248,2.0,3.4,81,0.00,,,0.00,WUHU216HW,2013-03-03 23:18:00,
2013-03-03 18:20:00,24.1,19.2,29.44,West,270,0.4,2.2,81,0.00,,,0.00,WUHU216HW,2013-03-03 23:20:00,
2013-03-03 18:22:00,24.3,19.1,29.44,NW,315,0.4,2.0,80,0.00,,,0.00,WUHU216HW,2013-03-03 23:22:00,
2013-03-03 18:23:00,24.3,19.1,29.44,NW,315,0.4,2.0,80,0.00,,,0.00,WUHU216HW,2013-03-03 23:23:00,
2013-03-03 18:25:00,24.3,19.1,29.44,NNW,338,0.2,2.2,80,0.00,,,0.00,WUHU216HW,2013-03-03 23:25:00,
2013-03-03 18:28:00,24.3,19.1,29.44,WNW,293,0.4,2.2,80,0.00,,,0.00,WUHU216HW,2013-03-03 23:28:00,
2013-03-03 18:30:00,24.3,19.1,29.44,West,270,1.6,2.2,80,0.00,,,0.00,WUHU216HW,2013-03-03 23:30:00,
2013-03-03 18:33:00,24.3,19.4,29.44,North,0,0.2,1.8,81,0.00,,,0.00,WUHU216HW,2013-03-03 23:33:00,
2013-03-03 18:35:00,24.5,18.9,29.44,NW,315,1.8,2.9,79,0.00,,,0.00,WUHU216HW,2013-03-03 23:35:00,
2013-03-03 18:38:00,24.5,18.9,29.44,NW,315,1.1,2.9,79,0.00,,,0.00,WUHU216HW,2013-03-03 23:38:00,
2013-03-03 18:40:00,24.5,18.9,29.44,WNW,293,1.3,4.3,79,0.00,,,0.00,WUHU216HW,2013-03-03 23:40:00,
2013-03-03 18:43:00,24.5,18.9,29.45,NNE,23,0.9,4.3,79,0.00,,,0.00,WUHU216HW,2013-03-03 23:43:00,
2013-03-03 18:45:00,24.3,18.7,29.44,NNW,338,0.4,4.3,79,0.00,,,0.00,WUHU216HW,2013-03-03 23:45:00,
2013-03-03 18:46:00,24.3,19.1,29.45,NNW,338,0.4,4.3,80,0.00,,,0.00,WUHU216HW,2013-03-03 23:46:00,
2013-03-03 18:48:00,24.1,18.9,29.45,West,270,1.3,4.3,80,0.00,,,0.00,WUHU216HW,2013-03-03 23:48:00,
2013-03-03 18:50:00,24.1,18.5,29.44,NNW,338,0.2,2.9,79,0.00,,,0.00,WUHU216HW,2013-03-03 23:50:00,
2013-03-03 18:51:00,24.1,18.5,29.45,NNW,338,0.2,2.9,79,0.00,,,0.00,WUHU216HW,2013-03-03 23:51:00,
2013-03-03 18:53:00,24.1,18.9,29.45,West,270,2.5,2.7,80,0.00,,,0.00,WUHU216HW,2013-03-03 23:53:00,
2013-03-03 18:54:00,24.1,18.9,29.45,West,270,2.5,2.7,80,0.00,,,0.00,WUHU216HW,2013-03-03 23:54:00,
2013-03-03 18:55:00,24.1,18.9,29.45,WNW,293,0.7,2.7,80,0.00,,,0.00,WUHU216HW,2013-03-03 23:55:00,
2013-03-03 18:56:00,24.1,18.9,29.45,WNW,293,0.7,2.7,80,0.00,,,0.00,WUHU216HW,2013-03-03 23:56:00,
2013-03-03 18:59:00,24.1,19.2,29.45,NW,315,4.9,4.9,81,0.00,,,0.00,WUHU216HW,2013-03-03 23:59:00,
2013-03-03 19:01:00,23.9,19.0,29.45,West,270,0.4,4.9,81,0.00,,,0.00,WUHU216HW,2013-03-04 00:01:00,
2013-03-03 19:04:00,23.9,18.7,29.44,WNW,293,2.7,4.9,80,0.00,,,0.00,WUHU216HW,2013-03-04 00:04:00,
2013-03-03 19:06:00,23.9,18.7,29.44,WNW,293,1.3,4.9,80,0.00,,,0.00,WUHU216HW,2013-03-04 00:06:00,
2013-03-03 19:09:00,23.8,18.5,29.45,West,270,3.4,5.1,80,0.00,,,0.00,WUHU216HW,2013-03-04 00:09:00,
2013-03-03 19:11:00,23.8,18.8,29.45,South,180,1.1,5.1,81,0.00,,,0.00,WUHU216HW,2013-03-04 00:11:00,
2013-03-03 19:12:00,23.8,18.8,29.44,WSW,248,1.8,5.1,81,0.00,,,0.00,WUHU216HW,2013-03-04 00:12:00,
2013-03-03 19:14:00,23.8,18.8,29.45,West,270,2.9,5.1,81,0.00,,,0.00,WUHU216HW,2013-03-04 00:14:00,
2013-03-03 19:16:00,23.6,18.9,29.45,WSW,248,2.0,5.1,82,0.00,,,0.00,WUHU216HW,2013-03-04 00:16:00,
2013-03-03 19:17:00,23.6,18.9,29.45,SW,225,0.7,5.1,82,0.00,,,0.00,WUHU216HW,2013-03-04 00:17:00,
2013-03-03 19:19:00,23.6,18.9,29.45,WSW,248,1.1,2.9,82,0.00,,,0.00,WUHU216HW,2013-03-04 00:19:00,
2013-03-03 19:22:00,23.6,18.9,29.45,NW,315,0.9,2.9,82,0.00,,,0.00,WUHU216HW,2013-03-04 00:22:00,
2013-03-03 19:24:00,23.6,18.9,29.45,NW,315,1.3,4.0,82,0.00,,,0.00,WUHU216HW,2013-03-04 00:24:00,
2013-03-03 19:27:00,23.4,18.7,29.45,WNW,293,1.1,6.3,82,0.00,,,0.00,WUHU216HW,2013-03-04 00:27:00,
2013-03-03 19:29:00,23.4,18.7,29.45,WNW,293,0.0,6.3,82,0.00,,,0.00,WUHU216HW,2013-03-04 00:29:00,
2013-03-03 19:32:00,23.4,18.7,29.45,West,270,1.8,6.3,82,0.00,,,0.00,WUHU216HW,2013-03-04 00:32:00,
2013-03-03 19:34:00,23.4,18.7,29.45,WNW,293,1.1,6.3,82,0.00,,,0.00,WUHU216HW,2013-03-04 00:34:00,
2013-03-03 19:37:00,23.4,18.7,29.45,NW,315,0.2,2.5,82,0.00,,,0.00,WUHU216HW,2013-03-04 00:37:00,
2013-03-03 19:40:00,23.4,18.7,29.45,NW,315,1.6,2.5,82,0.00,,,0.00,WUHU216HW,2013-03-04 00:40:00,
2013-03-03 19:42:00,23.4,18.7,29.45,SW,225,0.2,2.5,82,0.00,,,0.00,WUHU216HW,2013-03-04 00:42:00,
2013-03-03 19:43:00,23.4,18.7,29.45,SW,225,0.2,2.5,82,0.00,,,0.00,WUHU216HW,2013-03-04 00:43:00,
2013-03-03 19:45:00,23.4,18.7,29.45,West,270,0.4,2.5,82,0.00,,,0.00,WUHU216HW,2013-03-04 00:45:00,
2013-03-03 19:48:00,23.4,18.7,29.45,WNW,293,1.8,2.5,82,0.00,,,0.00,WUHU216HW,2013-03-04 00:48:00,
2013-03-03 19:50:00,23.4,18.7,29.45,WSW,248,0.4,2.5,82,0.00,,,0.00,WUHU216HW,2013-03-04 00:50:00,
2013-03-03 19:53:00,23.4,18.7,29.45,WNW,293,1.8,2.0,82,0.00,,,0.00,WUHU216HW,2013-03-04 00:53:00,
2013-03-03 19:55:00,23.6,18.9,29.45,NW,315,2.2,2.2,82,0.00,,,0.00,WUHU216HW,2013-03-04 00:55:00,
2013-03-03 19:58:00,23.6,18.9,29.45,WSW,248,2.5,3.4,82,0.00,,,0.00,WUHU216HW,2013-03-04 00:58:00,
2013-03-03 20:00:00,23.6,18.9,29.45,SW,225,0.9,3.4,82,0.00,,,0.00,WUHU216HW,2013-03-04 01:00:00,
2013-03-03 20:03:00,23.6,18.9,29.45,SSW,203,0.4,3.4,82,0.00,,,0.00,WUHU216HW,2013-03-04 01:03:00,
2013-03-03 20:05:00,23.6,18.9,29.45,NW,315,2.0,3.4,82,0.00,,,0.00,WUHU216HW,2013-03-04 01:05:00,
2013-03-03 20:08:00,23.4,18.7,29.46,NW,315,2.5,2.7,82,0.00,,,0.00,WUHU216HW,2013-03-04 01:08:00,
2013-03-03 20:10:00,23.4,18.7,29.45,WNW,293,1.8,2.7,82,0.00,,,0.00,WUHU216HW,2013-03-04 01:10:00,
2013-03-03 20:11:00,23.4,18.7,29.45,WSW,248,0.4,2.5,82,0.00,,,0.00,WUHU216HW,2013-03-04 01:11:00,
2013-03-03 20:13:00,23.4,18.7,29.46,WSW,248,0.4,2.5,82,0.00,,,0.00,WUHU216HW,2013-03-04 01:13:00,
2013-03-03 20:15:00,23.4,18.7,29.46,West,270,1.8,2.5,82,0.00,,,0.00,WUHU216HW,2013-03-04 01:15:00,
2013-03-03 20:16:00,23.4,18.7,29.46,West,270,1.1,2.5,82,0.00,,,0.00,WUHU216HW,2013-03-04 01:16:00,
2013-03-03 20:18:00,23.4,18.7,29.45,West,270,0.7,2.2,82,0.00,,,0.00,WUHU216HW,2013-03-04 01:18:00,
2013-03-03 20:20:00,23.4,19.0,29.46,West,270,0.0,2.2,83,0.00,,,0.00,WUHU216HW,2013-03-04 01:20:00,
2013-03-03 20:21:00,23.4,19.0,29.46,NW,315,0.0,2.2,83,0.00,,,0.00,WUHU216HW,2013-03-04 01:21:00,
2013-03-03 20:23:00,23.4,19.0,29.46,West,270,0.7,2.0,83,0.00,,,0.00,WUHU216HW,2013-03-04 01:23:00,
2013-03-03 20:26:00,23.4,19.0,29.46,WSW,248,1.8,2.0,83,0.00,,,0.00,WUHU216HW,2013-03-04 01:26:00,
2013-03-03 20:28:00,23.4,19.0,29.46,NW,315,1.6,2.0,83,0.00,,,0.00,WUHU216HW,2013-03-04 01:28:00,
2013-03-03 20:29:00,23.4,19.3,29.46,NNW,338,0.2,2.0,84,0.00,,,0.00,WUHU216HW,2013-03-04 01:29:00,
2013-03-03 20:31:00,23.4,19.3,29.46,NW,315,0.4,2.0,84,0.00,,,0.00,WUHU216HW,2013-03-04 01:31:00,
2013-03-03 20:33:00,23.4,19.3,29.46,West,270,0.0,2.0,84,0.00,,,0.00,WUHU216HW,2013-03-04 01:33:00,
2013-03-03 20:34:00,23.4,19.3,29.46,West,270,0.0,2.0,84,0.00,,,0.00,WUHU216HW,2013-03-04 01:34:00,
2013-03-03 20:36:00,23.4,19.3,29.46,WNW,293,0.9,2.0,84,0.00,,,0.00,WUHU216HW,2013-03-04 01:36:00,
2013-03-03 20:37:00,23.4,19.3,29.46,West,270,0.7,1.8,84,0.00,,,0.00,WUHU216HW,2013-03-04 01:37:00,
2013-03-03 20:39:00,23.4,19.3,29.46,WSW,248,1.1,1.8,84,0.00,,,0.00,WUHU216HW,2013-03-04 01:39:00,
2013-03-03 20:41:00,23.4,19.3,29.46,WSW,248,1.1,1.8,84,0.00,,,0.00,WUHU216HW,2013-03-04 01:41:00,
2013-03-03 20:42:00,23.4,19.3,29.46,NW,315,1.1,1.8,84,0.00,,,0.00,WUHU216HW,2013-03-04 01:42:00,
2013-03-03 20:44:00,23.4,19.3,29.46,North,0,1.6,1.8,84,0.00,,,0.00,WUHU216HW,2013-03-04 01:44:00,
2013-03-03 20:46:00,23.4,19.3,29.46,West,270,0.2,1.8,84,0.00,,,0.00,WUHU216HW,2013-03-04 01:46:00,
2013-03-03 20:47:00,23.4,19.5,29.46,NNW,338,0.2,1.8,85,0.00,,,0.00,WUHU216HW,2013-03-04 01:47:00,
2013-03-03 20:49:00,23.4,19.5,29.46,NNW,338,0.2,1.8,85,0.00,,,0.00,WUHU216HW,2013-03-04 01:49:00,
2013-03-03 20:51:00,23.4,19.5,29.46,NNW,338,0.0,1.8,85,0.00,,,0.00,WUHU216HW,2013-03-04 01:51:00,
2013-03-03 20:52:00,23.4,19.5,29.46,NNW,338,0.2,1.8,85,0.00,,,0.00,WUHU216HW,2013-03-04 01:52:00,
2013-03-03 20:54:00,23.4,19.5,29.46,WNW,293,0.0,1.8,85,0.00,,,0.00,WUHU216HW,2013-03-04 01:54:00,
2013-03-03 20:56:00,23.4,19.5,29.47,WNW,293,0.2,0.4,85,0.00,,,0.00,WUHU216HW,2013-03-04 01:56:00,
2013-03-03 20:58:00,23.4,19.5,29.47,NW,315,0.4,0.4,85,0.00,,,0.00,WUHU216HW,2013-03-04 01:58:00,
2013-03-03 20:59:00,23.4,19.5,29.47,NW,315,0.0,0.4,85,0.00,,,0.00,WUHU216HW,2013-03-04 01:59:00,
2013-03-03 21:01:00,23.4,19.5,29.47,NW,315,0.0,0.4,85,0.00,,,0.00,WUHU216HW,2013-03-04 02:01:00,
2013-03-03 21:03:00,23.4,19.5,29.46,NW,315,0.2,0.4,85,0.00,,,0.00,WUHU216HW,2013-03-04 02:03:00,
2013-03-03 21:04:00,23.4,19.5,29.46,NW,315,0.2,0.4,85,0.00,,,0.00,WUHU216HW,2013-03-04 02:04:00,
2013-03-03 21:06:00,23.4,19.5,29.47,NW,315,0.0,0.4,85,0.00,,,0.00,WUHU216HW,2013-03-04 02:06:00,
2013-03-03 21:08:00,23.6,19.7,29.47,West,270,1.8,1.8,85,0.00,,,0.00,WUHU216HW,2013-03-04 02:08:00,
2013-03-03 21:09:00,23.6,19.7,29.47,NNW,338,0.0,1.8,85,0.00,,,0.00,WUHU216HW,2013-03-04 02:09:00,
2013-03-03 21:11:00,23.6,19.7,29.47,NNW,338,0.2,1.8,85,0.00,,,0.00,WUHU216HW,2013-03-04 02:11:00,
2013-03-03 21:13:00,23.6,19.7,29.47,NNW,338,0.0,1.8,85,0.00,,,0.00,WUHU216HW,2013-03-04 02:13:00,
2013-03-03 21:14:00,23.6,19.7,29.47,NNW,338,0.0,1.8,85,0.00,,,0.00,WUHU216HW,2013-03-04 02:14:00,
2013-03-03 21:15:00,23.6,19.7,29.47,NNW,338,0.0,1.8,85,0.00,,,0.00,WUHU216HW,2013-03-04 02:15:00,
2013-03-03 21:17:00,23.8,19.9,29.47,NNW,338,0.0,1.8,85,0.00,,,0.00,WUHU216HW,2013-03-04 02:17:00,
2013-03-03 21:18:00,23.8,19.9,29.47,NNW,338,0.9,1.8,85,0.00,,,0.00,WUHU216HW,2013-03-04 02:18:00,
2013-03-03 21:19:00,23.8,19.9,29.47,NNW,338,0.2,0.9,85,0.00,,,0.00,WUHU216HW,2013-03-04 02:19:00,
2013-03-03 21:20:00,23.8,19.9,29.47,NNW,338,0.0,0.9,85,0.00,,,0.00,WUHU216HW,2013-03-04 02:20:00,
2013-03-03 21:22:00,23.8,19.6,29.47,NNW,338,0.0,0.9,84,0.00,,,0.00,WUHU216HW,2013-03-04 02:22:00,
2013-03-03 21:23:00,23.8,19.6,29.47,NNW,338,0.0,0.9,84,0.00,,,0.00,WUHU216HW,2013-03-04 02:23:00,
2013-03-03 21:25:00,23.6,19.7,29.47,WNW,293,1.1,1.1,85,0.00,,,0.00,WUHU216HW,2013-03-04 02:25:00,
2013-03-03 21:27:00,23.6,19.7,29.47,North,0,0.2,1.1,85,0.00,,,0.00,WUHU216HW,2013-03-04 02:27:00,
2013-03-03 21:28:00,23.4,19.5,29.47,NNW,338,0.7,1.1,85,0.00,,,0.00,WUHU216HW,2013-03-04 02:28:00,
2013-03-03 21:30:00,23.4,19.5,29.47,NNW,338,0.0,1.1,85,0.00,,,0.00,WUHU216HW,2013-03-04 02:30:00,
2013-03-03 21:32:00,23.4,19.5,29.47,North,0,0.7,1.8,85,0.00,,,0.00,WUHU216HW,2013-03-04 02:32:00,
2013-03-03 21:33:00,23.4,19.5,29.47,NNW,338,0.2,1.8,85,0.00,,,0.00,WUHU216HW,2013-03-04 02:33:00,
2013-03-03 21:35:00,23.4,19.5,29.47,NNW,338,0.2,1.8,85,0.00,,,0.00,WUHU216HW,2013-03-04 02:35:00,
2013-03-03 21:36:00,23.4,19.5,29.47,NW,315,0.2,1.8,85,0.00,,,0.00,WUHU216HW,2013-03-04 02:36:00,
2013-03-03 21:37:00,23.4,19.5,29.47,West,270,1.1,1.8,85,0.00,,,0.00,WUHU216HW,2013-03-04 02:37:00,
2013-03-03 21:38:00,23.4,19.5,29.47,West,270,0.0,1.8,85,0.00,,,0.00,WUHU216HW,2013-03-04 02:38:00,
2013-03-03 21:40:00,23.4,19.5,29.47,NW,315,0.4,1.8,85,0.00,,,0.00,WUHU216HW,2013-03-04 02:40:00,
2013-03-03 21:41:00,23.2,19.4,29.47,NNW,338,0.2,1.8,85,0.00,,,0.00,WUHU216HW,2013-03-04 02:41:00,
2013-03-03 21:42:00,23.2,19.4,29.47,West,270,0.4,1.1,85,0.00,,,0.00,WUHU216HW,2013-03-04 02:42:00,
2013-03-03 21:43:00,23.2,19.4,29.47,WNW,293,0.0,1.1,85,0.00,,,0.00,WUHU216HW,2013-03-04 02:43:00,
2013-03-03 21:46:00,23.2,19.4,29.47,North,0,0.4,1.3,85,0.00,,,0.00,WUHU216HW,2013-03-04 02:46:00,
2013-03-03 21:47:00,23.2,19.4,29.47,West,270,0.4,1.3,85,0.00,,,0.00,WUHU216HW,2013-03-04 02:47:00,
2013-03-03 21:48:00,23.2,19.4,29.47,NW,315,0.4,1.3,85,0.00,,,0.00,WUHU216HW,2013-03-04 02:48:00,
2013-03-03 21:51:00,23.0,19.2,29.47,WNW,293,0.4,1.3,85,0.00,,,0.00,WUHU216HW,2013-03-04 02:51:00,
2013-03-03 21:52:00,23.2,19.4,29.47,WNW,293,1.1,3.4,85,0.00,,,0.00,WUHU216HW,2013-03-04 02:52:00,
2013-03-03 21:53:00,23.2,19.4,29.47,WNW,293,0.9,3.4,85,0.00,,,0.00,WUHU216HW,2013-03-04 02:53:00,
2013-03-03 21:56:00,23.0,19.2,29.47,NW,315,0.2,3.4,85,0.00,,,0.00,WUHU216HW,2013-03-04 02:56:00,
2013-03-03 21:58:00,23.2,19.4,29.47,NW,315,0.0,3.4,85,0.00,,,0.00,WUHU216HW,2013-03-04 02:58:00,
2013-03-03 21:59:00,23.2,19.4,29.47,NW,315,0.0,3.4,85,0.00,,,0.00,WUHU216HW,2013-03-04 02:59:00,
2013-03-03 22:01:00,23.2,19.4,29.47,North,0,0.7,3.4,85,0.00,,,0.00,WUHU216HW,2013-03-04 03:01:00,
2013-03-03 22:03:00,23.2,19.4,29.47,WNW,293,0.9,2.2,85,0.00,,,0.00,WUHU216HW,2013-03-04 03:03:00,
2013-03-03 22:04:00,23.2,19.4,29.46,NW,315,2.9,2.9,85,0.00,,,0.00,WUHU216HW,2013-03-04 03:04:00,
2013-03-03 22:06:00,23.2,19.4,29.46,NNW,338,0.0,2.9,85,0.00,,,0.00,WUHU216HW,2013-03-04 03:06:00,
2013-03-03 22:07:00,23.0,19.2,29.46,NNW,338,0.2,2.9,85,0.00,,,0.00,WUHU216HW,2013-03-04 03:07:00,
2013-03-03 22:08:00,23.2,19.4,29.46,NNW,338,0.4,2.9,85,0.00,,,0.00,WUHU216HW,2013-03-04 03:08:00,
2013-03-03 22:09:00,23.2,19.4,29.46,WNW,293,0.0,2.9,85,0.00,,,0.00,WUHU216HW,2013-03-04 03:09:00,
2013-03-03 22:11:00,23.2,19.4,29.46,North,0,0.2,2.9,85,0.00,,,0.00,WUHU216HW,2013-03-04 03:11:00,
2013-03-03 22:12:00,23.2,19.4,29.46,North,0,0.0,2.9,85,0.00,,,0.00,WUHU216HW,2013-03-04 03:12:00,
2013-03-03 22:13:00,23.2,19.4,29.46,NNW,338,2.5,2.9,85,0.00,,,0.00,WUHU216HW,2013-03-04 03:13:00,
2013-03-03 22:14:00,23.0,19.2,29.46,WNW,293,0.4,2.5,85,0.00,,,0.00,WUHU216HW,2013-03-04 03:14:00,
2013-03-03 22:16:00,23.0,19.2,29.46,WNW,293,0.0,2.5,85,0.00,,,0.00,WUHU216HW,2013-03-04 03:16:00,
2013-03-03 22:17:00,23.0,19.2,29.46,WNW,293,0.0,2.5,85,0.00,,,0.00,WUHU216HW,2013-03-04 03:17:00,
2013-03-03 22:18:00,23.0,19.2,29.46,WNW,293,0.0,2.5,85,0.00,,,0.00,WUHU216HW,2013-03-04 03:18:00,
2013-03-03 22:19:00,23.2,19.4,29.46,West,270,0.9,2.5,85,0.00,,,0.00,WUHU216HW,2013-03-04 03:19:00,
2013-03-03 22:21:00,23.2,19.4,29.46,West,270,1.1,2.5,85,0.00,,,0.00,WUHU216HW,2013-03-04 03:21:00,
2013-03-03 22:22:00,23.2,19.4,29.46,West,270,0.0,2.5,85,0.00,,,0.00,WUHU216HW,2013-03-04 03:22:00,
2013-03-03 22:23:00,23.2,19.4,29.46,West,270,0.0,2.0,85,0.00,,,0.00,WUHU216HW,2013-03-04 03:23:00,
2013-03-03 22:24:00,23.4,19.5,29.46,West,270,0.0,1.6,85,0.00,,,0.00,WUHU216HW,2013-03-04 03:24:00,
2013-03-03 22:26:00,23.4,19.5,29.46,NW,315,2.0,2.0,85,0.00,,,0.00,WUHU216HW,2013-03-04 03:26:00,
2013-03-03 22:28:00,23.2,19.4,29.46,NW,315,0.0,2.0,85,0.00,,,0.00,WUHU216HW,2013-03-04 03:28:00,
2013-03-03 22:29:00,23.4,19.5,29.46,WNW,293,0.2,2.0,85,0.00,,,0.00,WUHU216HW,2013-03-04 03:29:00,
2013-03-03 22:31:00,23.4,19.5,29.46,NW,315,0.4,2.0,85,0.00,,,0.00,WUHU216HW,2013-03-04 03:31:00,
2013-03-03 22:33:00,23.2,19.4,29.46,NNW,338,0.2,2.0,85,0.00,,,0.00,WUHU216HW,2013-03-04 03:33:00,
2013-03-03 22:34:00,23.2,19.4,29.46,NW,315,0.4,2.0,85,0.00,,,0.00,WUHU216HW,2013-03-04 03:34:00,
2013-03-03 22:37:00,23.2,19.1,29.46,NNW,338,0.4,1.6,84,0.00,,,0.00,WUHU216HW,2013-03-04 03:37:00,
2013-03-03 22:38:00,23.2,19.1,29.46,NW,315,0.0,1.6,84,0.00,,,0.00,WUHU216HW,2013-03-04 03:38:00,
2013-03-03 22:39:00,23.0,18.9,29.46,NNW,338,0.0,1.6,84,0.00,,,0.00,WUHU216HW,2013-03-04 03:39:00,
2013-03-03 22:42:00,23.0,19.2,29.46,WNW,293,0.7,1.1,85,0.00,,,0.00,WUHU216HW,2013-03-04 03:42:00,
2013-03-03 22:43:00,23.0,19.2,29.46,NW,315,0.0,1.1,85,0.00,,,0.00,WUHU216HW,2013-03-04 03:43:00,
2013-03-03 22:44:00,23.0,19.2,29.46,WNW,293,0.4,1.1,85,0.00,,,0.00,WUHU216HW,2013-03-04 03:44:00,
2013-03-03 22:47:00,23.0,19.2,29.46,North,0,0.0,1.1,85,0.00,,,0.00,WUHU216HW,2013-03-04 03:47:00,
2013-03-03 22:48:00,22.9,19.0,29.46,NNW,338,0.4,1.1,85,0.00,,,0.00,WUHU216HW,2013-03-04 03:48:00,
2013-03-03 22:49:00,22.9,19.0,29.46,NNW,338,0.2,1.1,85,0.00,,,0.00,WUHU216HW,2013-03-04 03:49:00,
2013-03-03 22:52:00,23.0,19.2,29.46,NW,315,0.4,1.1,85,0.00,,,0.00,WUHU216HW,2013-03-04 03:52:00,
2013-03-03 22:53:00,23.0,19.2,29.46,NW,315,0.0,1.1,85,0.00,,,0.00,WUHU216HW,2013-03-04 03:53:00,
2013-03-03 22:54:00,23.0,19.2,29.46,North,0,0.2,1.1,85,0.00,,,0.00,WUHU216HW,2013-03-04 03:54:00,
2013-03-03 22:57:00,22.9,19.0,29.46,North,0,1.3,1.6,85,0.00,,,0.00,WUHU216HW,2013-03-04 03:57:00,
2013-03-03 22:58:00,22.9,19.0,29.46,North,0,1.8,1.8,85,0.00,,,0.00,WUHU216HW,2013-03-04 03:58:00,
2013-03-03 22:59:00,22.9,19.0,29.46,NW,315,0.4,1.8,85,0.00,,,0.00,WUHU216HW,2013-03-04 03:59:00,
2013-03-03 23:02:00,22.9,19.0,29.46,North,0,0.4,1.8,85,0.00,,,0.00,WUHU216HW,2013-03-04 04:02:00,
2013-03-03 23:03:00,22.9,19.0,29.46,NW,315,0.2,1.8,85,0.00,,,0.00,WUHU216HW,2013-03-04 04:03:00,
2013-03-03 23:04:00,22.9,19.3,29.46,NNW,338,0.4,1.8,86,0.00,,,0.00,WUHU216HW,2013-03-04 04:04:00,
2013-03-03 23:05:00,22.7,19.1,29.46,NNW,338,0.0,1.8,86,0.00,,,0.00,WUHU216HW,2013-03-04 04:05:00,
2013-03-03 23:07:00,22.7,18.8,29.46,NNW,338,0.4,6.5,85,0.00,,,0.00,WUHU216HW,2013-03-04 04:07:00,
2013-03-03 23:08:00,22.7,18.8,29.46,WNW,293,1.3,6.5,85,0.00,,,0.00,WUHU216HW,2013-03-04 04:08:00,
2013-03-03 23:09:00,22.7,18.8,29.46,NW,315,1.3,6.5,85,0.00,,,0.00,WUHU216HW,2013-03-04 04:09:00,
2013-03-03 23:10:00,22.7,18.8,29.46,NW,315,0.2,6.5,85,0.00,,,0.00,WUHU216HW,2013-03-04 04:10:00,
2013-03-03 23:13:00,22.7,18.8,29.46,NNE,23,1.8,6.5,85,0.00,,,0.00,WUHU216HW,2013-03-04 04:13:00,
2013-03-03 23:14:00,22.7,18.8,29.46,NW,315,1.8,6.5,85,0.00,,,0.00,WUHU216HW,2013-03-04 04:14:00,
2013-03-03 23:15:00,22.7,18.8,29.46,NNW,338,0.0,6.5,85,0.00,,,0.00,WUHU216HW,2013-03-04 04:15:00,
2013-03-03 23:18:00,22.7,19.1,29.46,WNW,293,1.3,3.8,86,0.00,,,0.00,WUHU216HW,2013-03-04 04:18:00,
2013-03-03 23:19:00,22.7,18.8,29.46,NW,315,0.4,3.8,85,0.00,,,0.00,WUHU216HW,2013-03-04 04:19:00,
2013-03-03 23:20:00,22.7,19.1,29.46,WNW,293,0.4,3.8,86,0.00,,,0.00,WUHU216HW,2013-03-04 04:20:00,
2013-03-03 23:23:00,22.7,19.1,29.46,NW,315,0.0,3.8,86,0.00,,,0.00,WUHU216HW,2013-03-04 04:23:00,
2013-03-03 23:24:00,22.7,18.8,29.46,NNW,338,0.4,3.8,85,0.00,,,0.00,WUHU216HW,2013-03-04 04:24:00,
2013-03-03 23:25:00,22.7,18.8,29.46,West,270,2.2,3.8,85,0.00,,,0.00,WUHU216HW,2013-03-04 04:25:00,
2013-03-03 23:28:00,22.7,19.1,29.46,WNW,293,0.0,2.2,86,0.00,,,0.00,WUHU216HW,2013-03-04 04:28:00,
2013-03-03 23:29:00,22.7,19.1,29.46,NW,315,0.2,2.2,86,0.00,,,0.00,WUHU216HW,2013-03-04 04:29:00,
2013-03-03 23:30:00,22.7,18.8,29.46,West,270,1.8,2.2,85,0.00,,,0.00,WUHU216HW,2013-03-04 04:30:00,
2013-03-03 23:33:00,22.7,18.8,29.46,West,270,0.9,2.2,85,0.00,,,0.00,WUHU216HW,2013-03-04 04:33:00,
2013-03-03 23:34:00,22.7,18.8,29.46,WNW,293,0.9,2.2,85,0.00,,,0.00,WUHU216HW,2013-03-04 04:34:00,
2013-03-03 23:35:00,22.7,18.8,29.46,WNW,293,1.1,1.8,85,0.00,,,0.00,WUHU216HW,2013-03-04 04:35:00,
2013-03-03 23:38:00,22.7,18.8,29.46,West,270,1.8,2.0,85,0.00,,,0.00,WUHU216HW,2013-03-04 04:38:00,
2013-03-03 23:39:00,22.7,18.8,29.46,NW,315,1.8,2.0,85,0.00,,,0.00,WUHU216HW,2013-03-04 04:39:00,
2013-03-03 23:40:00,22.7,19.1,29.46,NW,315,0.4,2.0,86,0.00,,,0.00,WUHU216HW,2013-03-04 04:40:00,
2013-03-03 23:43:00,22.7,19.1,29.46,North,0,0.4,2.0,86,0.00,,,0.00,WUHU216HW,2013-03-04 04:43:00,
2013-03-03 23:44:00,22.7,19.1,29.46,North,0,0.4,2.0,86,0.00,,,0.00,WUHU216HW,2013-03-04 04:44:00,
2013-03-03 23:45:00,22.7,18.8,29.46,West,270,0.9,2.0,85,0.00,,,0.00,WUHU216HW,2013-03-04 04:45:00,
2013-03-03 23:49:00,22.9,19.0,29.46,WNW,293,0.4,1.8,85,0.00,,,0.00,WUHU216HW,2013-03-04 04:49:00,
2013-03-03 23:50:00,22.7,18.8,29.46,West,270,1.8,1.8,85,0.00,,,0.00,WUHU216HW,2013-03-04 04:50:00,
2013-03-03 23:54:00,22.7,18.8,29.46,North,0,1.8,2.5,85,0.00,,,0.00,WUHU216HW,2013-03-04 04:54:00,
2013-03-03 23:55:00,22.7,18.8,29.46,NW,315,0.4,2.5,85,0.00,,,0.00,WUHU216HW,2013-03-04 04:55:00,
2013-03-03 23:56:00,22.7,18.8,29.46,North,0,0.4,2.5,85,0.00,,,0.00,WUHU216HW,2013-03-04 04:56:00,
2013-03-03 23:59:00,22.5,18.6,29.46,North,0,5.6,5.6,85,0.00,,,0.00,WUHU216HW,2013-03-04 04:59:00,